DAL3120 KMSP-PHNL

Flight info

Callsign DAL3120
Flight time 8h 29m
Altitude 38000
Route SMERF7 SMERF MMUDY VLBRG FERXY BIL DLN LKT DNJ IMB DSD MOXEE EUG HEMLO A332 HEKAB/N0483F400 A332 AUNTI R463 APACK INOYI1
Aircraft A359/H-SDE2E3GHIJ3J4J5LM1ORWXY/LB1D1

Departure

Time 2026-05-07 15:28
Airport Minneapolis–Saint Paul International Airport / Wold–Chamberlain Field (KMSP)

Arrival

Time 2026-05-07 23:58
Airport Daniel K. Inouye International Airport (PHNL)
Time Latitude Longitude Altitude Speed Heading
2026-05-07 14:46 44.88326 -93.21646 832 ft 0 kts 50°
2026-05-07 15:16 44.88327 -93.21643 831 ft 3 kts 50°
2026-05-07 15:17 44.88344 -93.21616 837 ft 0 kts 50°
2026-05-07 15:17 44.88345 -93.21616 837 ft 0 kts 50°
2026-05-07 15:18 44.88336 -93.21631 835 ft 4 kts 52°
2026-05-07 15:18 44.88321 -93.21662 832 ft 4 kts 58°
2026-05-07 15:18 44.88307 -93.21695 832 ft 4 kts 65°
2026-05-07 15:18 44.88297 -93.21730 832 ft 4 kts 73°
2026-05-07 15:19 44.88291 -93.21766 833 ft 4 kts 87°
2026-05-07 15:19 44.88294 -93.21802 833 ft 4 kts 119°
2026-05-07 15:19 44.88310 -93.21831 834 ft 6 kts 143°
2026-05-07 15:19 44.88333 -93.21846 834 ft 6 kts 173°
2026-05-07 15:20 44.88359 -93.21845 838 ft 6 kts 196°
2026-05-07 15:20 44.88384 -93.21831 834 ft 7 kts 211°
2026-05-07 15:20 44.88406 -93.21809 834 ft 7 kts 220°
2026-05-07 15:20 44.88417 -93.21793 834 ft 3 kts 224°
2026-05-07 15:21 44.88402 -93.21793 834 ft 0 kts 224°
2026-05-07 15:23 44.88389 -93.21817 840 ft 8 kts 232°
2026-05-07 15:23 44.88329 -93.21909 840 ft 17 kts 218°
2026-05-07 15:23 44.88228 -93.22009 832 ft 18 kts 211°
2026-05-07 15:24 44.88138 -93.22119 836 ft 16 kts 216°
2026-05-07 15:24 44.88062 -93.22054 834 ft 16 kts 123°
2026-05-07 15:24 44.87997 -93.21901 830 ft 20 kts 121°
2026-05-07 15:24 44.87920 -93.21723 828 ft 23 kts 121°
2026-05-07 15:25 44.87832 -93.21521 835 ft 25 kts 123°
2026-05-07 15:25 44.87739 -93.21309 829 ft 26 kts 121°
2026-05-07 15:25 44.87647 -93.21096 827 ft 27 kts 121°
2026-05-07 15:25 44.87547 -93.20865 830 ft 28 kts 122°
2026-05-07 15:26 44.87411 -93.20654 823 ft 30 kts 143°
2026-05-07 15:26 44.87289 -93.20417 824 ft 30 kts 121°
2026-05-07 15:26 44.87245 -93.20251 828 ft 14 kts 66°
2026-05-07 15:26 44.87321 -93.20171 826 ft 14 kts 32°
2026-05-07 15:27 44.87368 -93.20167 829 ft 4 kts 309°
2026-05-07 15:27 44.87392 -93.20219 831 ft 9 kts 303°
2026-05-07 15:27 44.87447 -93.20343 824 ft 31 kts 300°
2026-05-07 15:27 44.87677 -93.20869 828 ft 94 kts 302°
2026-05-07 15:28 44.88125 -93.21899 833 ft 149 kts 301°
2026-05-07 15:28 44.88727 -93.23252 1239 ft 164 kts 301°
2026-05-07 15:28 44.89122 -93.24172 1642 ft 167 kts 300°
2026-05-07 15:28 44.89717 -93.25624 2278 ft 174 kts 300°
2026-05-07 15:29 44.90334 -93.27183 2770 ft 193 kts 298°
2026-05-07 15:29 44.90948 -93.29049 3076 ft 222 kts 295°
2026-05-07 15:29 44.91598 -93.31096 3637 ft 238 kts 294°
2026-05-07 15:29 44.92277 -93.33273 4452 ft 244 kts 294°
2026-05-07 15:30 44.92962 -93.35488 5323 ft 248 kts 293°
2026-05-07 15:30 44.93655 -93.37737 6236 ft 248 kts 293°
2026-05-07 15:30 44.94337 -93.39958 7040 ft 248 kts 293°
2026-05-07 15:30 44.95024 -93.42198 7748 ft 251 kts 293°
2026-05-07 15:31 44.95719 -93.44471 8502 ft 253 kts 294°
2026-05-07 15:31 44.96423 -93.46770 9294 ft 255 kts 294°
2026-05-07 15:31 44.97128 -93.49078 10053 ft 257 kts 294°
2026-05-07 15:31 44.97854 -93.51454 10534 ft 270 kts 294°
2026-05-07 15:32 44.98623 -93.53974 10834 ft 288 kts 294°
2026-05-07 15:32 44.99428 -93.56615 11110 ft 305 kts 294°
2026-05-07 15:32 45.00289 -93.59440 11423 ft 321 kts 294°
2026-05-07 15:32 45.01195 -93.62416 11728 ft 336 kts 294°
2026-05-07 15:33 45.02131 -93.65499 12209 ft 344 kts 294°
2026-05-07 15:33 45.03082 -93.68631 12865 ft 348 kts 294°
2026-05-07 15:33 45.04041 -93.71798 13539 ft 351 kts 294°
2026-05-07 15:33 45.05007 -93.74990 14156 ft 355 kts 294°
2026-05-07 15:34 45.05985 -93.78227 14697 ft 358 kts 294°
2026-05-07 15:34 45.06967 -93.81479 15273 ft 361 kts 294°
2026-05-07 15:34 45.07959 -93.84771 15877 ft 364 kts 294°
2026-05-07 15:34 45.08945 -93.88046 16503 ft 367 kts 294°
2026-05-07 15:35 45.09861 -93.91451 17158 ft 370 kts 290°
2026-05-07 15:35 45.10682 -93.94935 17800 ft 374 kts 289°
2026-05-07 15:35 45.11501 -93.98415 18410 ft 377 kts 289°
2026-05-07 15:35 45.12338 -94.01926 18998 ft 380 kts 289°
2026-05-07 15:36 45.13194 -94.05486 19544 ft 383 kts 290°
2026-05-07 15:36 45.14056 -94.09055 20087 ft 386 kts 290°
2026-05-07 15:36 45.14937 -94.12694 20646 ft 388 kts 290°
2026-05-07 15:36 45.15809 -94.16300 21189 ft 391 kts 289°
2026-05-07 15:37 45.16690 -94.19944 21744 ft 394 kts 289°
2026-05-07 15:37 45.17586 -94.23655 22282 ft 397 kts 290°
2026-05-07 15:37 45.18473 -94.27333 22867 ft 398 kts 290°
2026-05-07 15:37 45.19373 -94.31070 23395 ft 401 kts 290°
2026-05-07 15:38 45.20284 -94.34857 23859 ft 404 kts 290°
2026-05-07 15:38 45.21185 -94.38615 24297 ft 407 kts 290°
2026-05-07 15:38 45.22105 -94.42457 24748 ft 409 kts 290°
2026-05-07 15:38 45.23016 -94.46266 25186 ft 412 kts 290°
2026-05-07 15:39 45.23943 -94.50154 25642 ft 414 kts 290°
2026-05-07 15:39 45.24855 -94.53983 26081 ft 416 kts 290°
2026-05-07 15:39 45.25785 -94.57894 26520 ft 418 kts 290°
2026-05-07 15:39 45.26723 -94.61843 26958 ft 421 kts 290°
2026-05-07 15:40 45.27656 -94.65786 27397 ft 422 kts 291°
2026-05-07 15:40 45.28584 -94.69709 27864 ft 423 kts 291°
2026-05-07 15:40 45.29532 -94.73723 28226 ft 428 kts 291°
2026-05-07 15:40 45.30469 -94.77696 28563 ft 431 kts 291°
2026-05-07 15:41 45.31427 -94.81767 28953 ft 433 kts 291°
2026-05-07 15:41 45.32375 -94.85803 29340 ft 435 kts 291°
2026-05-07 15:41 45.33333 -94.89890 29706 ft 437 kts 291°
2026-05-07 15:41 45.34300 -94.94022 30044 ft 439 kts 291°
2026-05-07 15:42 45.35259 -94.98131 30310 ft 442 kts 291°
2026-05-07 15:42 45.36230 -95.02302 30652 ft 442 kts 291°
2026-05-07 15:42 45.37184 -95.06403 31007 ft 440 kts 291°
2026-05-07 15:42 45.38149 -95.10561 31399 ft 440 kts 291°
2026-05-07 15:43 45.39112 -95.14719 31692 ft 440 kts 290°
2026-05-07 15:43 45.40061 -95.18820 31990 ft 440 kts 290°
2026-05-07 15:43 45.41024 -95.22989 32288 ft 441 kts 290°
2026-05-07 15:43 45.41972 -95.27107 32575 ft 441 kts 290°
2026-05-07 15:44 45.42923 -95.31240 32890 ft 441 kts 290°
2026-05-07 15:44 45.43879 -95.35405 33197 ft 441 kts 290°
2026-05-07 15:44 45.44828 -95.39546 33489 ft 441 kts 290°
2026-05-07 15:44 45.45772 -95.43676 33709 ft 442 kts 290°
2026-05-07 15:45 45.46729 -95.47871 33962 ft 442 kts 290°
2026-05-07 15:45 45.47670 -95.52003 34251 ft 441 kts 290°
2026-05-07 15:45 45.48619 -95.56175 34455 ft 441 kts 290°
2026-05-07 15:45 45.49569 -95.60365 34656 ft 442 kts 290°
2026-05-07 15:46 45.51448 -95.68667 35062 ft 442 kts 290°
2026-05-07 15:46 45.52386 -95.72827 35233 ft 442 kts 290°
2026-05-07 15:46 45.53336 -95.77047 35412 ft 442 kts 290°
2026-05-07 15:47 45.54274 -95.81219 35583 ft 443 kts 290°
2026-05-07 15:47 45.55204 -95.85367 35745 ft 443 kts 290°
2026-05-07 15:47 45.56143 -95.89564 35963 ft 441 kts 290°
2026-05-07 15:47 45.57077 -95.93746 36171 ft 441 kts 290°
2026-05-07 15:48 45.58000 -95.97882 36307 ft 442 kts 290°
2026-05-07 15:48 45.58935 -96.02082 36469 ft 442 kts 290°
2026-05-07 15:48 45.59869 -96.06290 36618 ft 442 kts 290°
2026-05-07 15:48 45.60793 -96.10458 36783 ft 443 kts 289°
2026-05-07 15:49 45.61716 -96.14631 36909 ft 444 kts 290°
2026-05-07 15:49 45.63572 -96.23044 37155 ft 445 kts 289°
2026-05-07 15:49 45.64502 -96.27272 37272 ft 445 kts 290°
2026-05-07 15:50 45.65432 -96.31515 37509 ft 443 kts 289°
2026-05-07 15:50 45.66343 -96.35674 37666 ft 443 kts 289°
2026-05-07 15:50 45.67265 -96.39890 37779 ft 443 kts 289°
2026-05-07 15:50 45.68178 -96.44074 37895 ft 444 kts 289°
2026-05-07 15:51 45.69098 -96.48299 37976 ft 445 kts 289°
2026-05-07 15:51 45.70935 -96.56763 37994 ft 449 kts 289°
2026-05-07 15:52 45.72793 -96.65360 37990 ft 450 kts 289°
2026-05-07 15:52 45.74631 -96.73900 37983 ft 449 kts 289°
2026-05-07 15:53 45.76455 -96.82409 37981 ft 448 kts 289°
2026-05-07 15:53 45.78272 -96.90920 37981 ft 449 kts 289°
2026-05-07 15:54 45.80093 -96.99487 37975 ft 449 kts 289°
2026-05-07 15:54 45.81904 -97.08040 37974 ft 449 kts 289°
2026-05-07 15:55 45.83710 -97.16606 37965 ft 448 kts 289°
2026-05-07 15:55 45.85514 -97.25196 37978 ft 448 kts 289°
2026-05-07 15:56 45.87296 -97.33719 37977 ft 447 kts 289°
2026-05-07 15:56 45.89082 -97.42299 37960 ft 447 kts 289°
2026-05-07 15:57 45.90848 -97.50818 37960 ft 447 kts 289°
2026-05-07 15:57 45.92066 -97.59615 37961 ft 453 kts 276°
2026-05-07 15:58 45.92232 -97.68656 37955 ft 457 kts 274°
2026-05-07 15:58 45.92210 -97.77767 37951 ft 457 kts 274°
2026-05-07 15:59 45.92183 -97.86937 37954 ft 457 kts 274°
2026-05-07 15:59 45.92177 -97.96025 37954 ft 457 kts 274°
2026-05-07 16:00 45.92178 -98.05173 37961 ft 457 kts 274°
2026-05-07 16:00 45.92173 -98.14303 37967 ft 457 kts 274°
2026-05-07 16:01 45.92160 -98.23442 37967 ft 457 kts 274°
2026-05-07 16:01 45.92139 -98.32576 37930 ft 457 kts 274°
2026-05-07 16:02 45.92110 -98.41660 37960 ft 457 kts 274°
2026-05-07 16:02 45.92074 -98.50814 37967 ft 457 kts 274°
2026-05-07 16:03 45.92032 -98.59883 37964 ft 457 kts 274°
2026-05-07 16:03 45.91981 -98.69030 37954 ft 457 kts 274°
2026-05-07 16:04 45.91924 -98.78124 37944 ft 455 kts 274°
2026-05-07 16:04 45.91859 -98.87187 37946 ft 455 kts 274°
2026-05-07 16:05 45.91787 -98.96306 37956 ft 454 kts 274°
2026-05-07 16:05 45.91709 -99.05341 37927 ft 454 kts 273°
2026-05-07 16:06 45.91623 -99.14393 37935 ft 454 kts 273°
2026-05-07 16:06 45.91530 -99.23490 37935 ft 452 kts 273°
2026-05-07 16:07 45.91431 -99.32506 37933 ft 452 kts 273°
2026-05-07 16:07 45.91324 -99.41546 37930 ft 452 kts 273°
2026-05-07 16:08 45.91211 -99.50543 37933 ft 452 kts 273°
2026-05-07 16:08 45.91089 -99.59581 37933 ft 452 kts 273°
2026-05-07 16:09 45.90960 -99.68553 37930 ft 451 kts 273°
2026-05-07 16:09 45.90825 -99.77559 37930 ft 452 kts 273°
2026-05-07 16:10 45.90683 -99.86582 37934 ft 451 kts 272°
2026-05-07 16:10 45.90534 -99.95604 37935 ft 451 kts 272°
2026-05-07 16:11 45.90378 -100.04610 37935 ft 450 kts 272°
2026-05-07 16:11 45.90216 -100.13592 37936 ft 450 kts 272°
2026-05-07 16:12 45.90046 -100.22577 37938 ft 451 kts 272°
2026-05-07 16:12 45.89869 -100.31530 37914 ft 450 kts 272°
2026-05-07 16:13 45.89685 -100.40514 37949 ft 450 kts 272°
2026-05-07 16:13 45.89493 -100.49536 37946 ft 451 kts 272°
2026-05-07 16:14 45.89296 -100.58492 37941 ft 451 kts 272°
2026-05-07 16:14 45.89091 -100.67473 37946 ft 451 kts 272°
2026-05-07 16:15 45.88878 -100.76478 37942 ft 450 kts 272°
2026-05-07 16:15 45.88658 -100.85454 37948 ft 449 kts 272°
2026-05-07 16:16 45.88433 -100.94393 37956 ft 449 kts 272°
2026-05-07 16:16 45.88200 -101.03358 37956 ft 449 kts 272°
2026-05-07 16:17 45.87961 -101.12294 37953 ft 449 kts 272°
2026-05-07 16:17 45.87756 -101.19798 37951 ft 450 kts 272°
2026-05-07 16:18 45.87502 -101.28779 37966 ft 450 kts 272°
2026-05-07 16:18 45.87242 -101.37746 37956 ft 450 kts 271°
2026-05-07 16:19 45.86976 -101.46683 37963 ft 450 kts 271°
2026-05-07 16:19 45.86700 -101.55689 37960 ft 450 kts 271°
2026-05-07 16:20 45.86419 -101.64665 37956 ft 450 kts 271°
2026-05-07 16:20 45.86130 -101.73647 37965 ft 450 kts 271°
2026-05-07 16:21 45.85836 -101.82596 37963 ft 450 kts 271°
2026-05-07 16:21 45.85534 -101.91574 37956 ft 451 kts 271°
2026-05-07 16:22 45.85366 -102.00519 37960 ft 449 kts 276°
2026-05-07 16:22 45.85616 -102.09460 37953 ft 448 kts 276°
2026-05-07 16:23 45.85932 -102.18394 37958 ft 448 kts 276°
2026-05-07 16:23 45.86250 -102.27323 37952 ft 448 kts 276°
2026-05-07 16:24 45.86554 -102.36218 37951 ft 449 kts 276°
2026-05-07 16:24 45.86848 -102.45184 37948 ft 450 kts 276°
2026-05-07 16:25 45.87135 -102.54163 37945 ft 450 kts 276°
2026-05-07 16:25 45.87413 -102.63103 37947 ft 450 kts 276°
2026-05-07 16:26 45.87688 -102.72126 37923 ft 450 kts 275°
2026-05-07 16:26 45.87955 -102.81122 37941 ft 452 kts 275°
2026-05-07 16:27 45.88215 -102.90150 37943 ft 453 kts 275°
2026-05-07 16:27 45.88466 -102.99130 37939 ft 453 kts 275°
2026-05-07 16:28 45.88711 -103.08160 37937 ft 453 kts 275°
2026-05-07 16:28 45.88950 -103.17198 37937 ft 454 kts 275°
2026-05-07 16:29 45.89183 -103.26229 37936 ft 454 kts 275°
2026-05-07 16:29 45.89409 -103.35307 37934 ft 454 kts 275°
2026-05-07 16:30 45.89627 -103.44373 37930 ft 454 kts 275°
2026-05-07 16:30 45.89837 -103.53378 37912 ft 454 kts 274°
2026-05-07 16:31 45.90042 -103.62503 37930 ft 456 kts 274°
2026-05-07 16:31 45.90240 -103.71600 37928 ft 456 kts 274°
2026-05-07 16:32 45.90429 -103.80668 37925 ft 456 kts 274°
2026-05-07 16:32 45.90613 -103.89813 37923 ft 456 kts 274°
2026-05-07 16:33 45.90788 -103.98877 37922 ft 457 kts 274°
2026-05-07 16:33 45.90958 -104.08032 37919 ft 458 kts 274°
2026-05-07 16:34 45.91119 -104.17125 37922 ft 458 kts 274°
2026-05-07 16:34 45.91275 -104.26308 37919 ft 458 kts 274°
2026-05-07 16:35 45.91420 -104.35417 37893 ft 458 kts 274°
2026-05-07 16:35 45.91561 -104.44585 37920 ft 459 kts 274°
2026-05-07 16:36 45.91695 -104.53751 37917 ft 459 kts 274°
2026-05-07 16:36 45.91821 -104.62864 37916 ft 459 kts 274°
2026-05-07 16:37 45.91939 -104.72031 37917 ft 459 kts 274°
2026-05-07 16:37 45.92050 -104.81178 37915 ft 459 kts 274°
2026-05-07 16:38 45.92154 -104.90335 37917 ft 459 kts 274°
2026-05-07 16:38 45.92251 -104.99537 37917 ft 459 kts 274°
2026-05-07 16:39 45.92340 -105.08690 37919 ft 459 kts 274°
2026-05-07 16:39 45.92422 -105.17854 37905 ft 459 kts 274°
2026-05-07 16:40 45.92496 -105.27018 37915 ft 458 kts 274°
2026-05-07 16:40 45.92563 -105.36117 37916 ft 457 kts 274°
2026-05-07 16:41 45.92622 -105.45257 37902 ft 458 kts 274°
2026-05-07 16:41 45.92675 -105.54396 37912 ft 458 kts 274°
2026-05-07 16:42 45.92720 -105.63531 37913 ft 458 kts 274°
2026-05-07 16:42 45.92758 -105.72682 37916 ft 458 kts 274°
2026-05-07 16:43 45.92789 -105.81839 37912 ft 458 kts 274°
2026-05-07 16:43 45.92813 -105.90974 37909 ft 458 kts 273°
2026-05-07 16:44 45.92828 -106.00135 37904 ft 458 kts 274°
2026-05-07 16:44 45.92836 -106.09289 37917 ft 457 kts 274°
2026-05-07 16:45 45.92838 -106.18441 37913 ft 457 kts 274°
2026-05-07 16:45 45.92833 -106.27562 37914 ft 457 kts 274°
2026-05-07 16:46 45.92820 -106.36683 37914 ft 457 kts 273°
2026-05-07 16:46 45.92800 -106.45833 37909 ft 457 kts 274°
2026-05-07 16:47 45.92884 -106.54925 37919 ft 455 kts 276°
2026-05-07 16:47 45.93135 -106.64006 37928 ft 455 kts 276°
2026-05-07 16:48 45.93375 -106.73034 37921 ft 455 kts 276°
2026-05-07 16:48 45.93580 -106.82131 37904 ft 455 kts 276°
2026-05-07 16:49 45.93763 -106.91198 37931 ft 454 kts 276°
2026-05-07 16:49 45.93935 -107.00235 37939 ft 454 kts 276°
2026-05-07 16:50 45.94101 -107.09304 37941 ft 453 kts 276°
2026-05-07 16:50 45.94263 -107.18338 37927 ft 454 kts 276°
2026-05-07 16:51 45.94091 -107.27419 37938 ft 457 kts 269°
2026-05-07 16:51 45.93333 -107.36509 37934 ft 457 kts 268°
2026-05-07 16:52 45.92476 -107.45562 37935 ft 457 kts 267°
2026-05-07 16:52 45.91604 -107.54605 37939 ft 457 kts 267°
2026-05-07 16:53 45.90741 -107.63595 37900 ft 457 kts 268°
2026-05-07 16:53 45.89871 -107.72628 37938 ft 454 kts 268°
2026-05-07 16:54 45.89007 -107.81568 37935 ft 454 kts 268°
2026-05-07 16:54 45.88129 -107.90586 37935 ft 454 kts 268°
2026-05-07 16:55 45.87246 -107.99549 37929 ft 454 kts 268°
2026-05-07 16:55 45.86356 -108.08499 37951 ft 452 kts 268°
2026-05-07 16:56 45.85463 -108.17413 37954 ft 451 kts 268°
2026-05-07 16:56 45.84119 -108.30719 37957 ft 451 kts 268°
2026-05-07 16:57 45.83210 -108.39625 37985 ft 451 kts 268°
2026-05-07 16:57 45.82296 -108.48507 37981 ft 451 kts 268°
2026-05-07 16:58 45.81375 -108.57381 37981 ft 450 kts 268°
2026-05-07 16:58 45.80429 -108.66285 37980 ft 451 kts 267°
2026-05-07 16:59 45.79325 -108.75127 37938 ft 452 kts 266°
2026-05-07 16:59 45.78165 -108.83998 37936 ft 452 kts 266°
2026-05-07 17:00 45.77030 -108.92792 37950 ft 451 kts 266°
2026-05-07 17:00 45.75898 -109.01645 37949 ft 451 kts 266°
2026-05-07 17:01 45.74767 -109.10474 37954 ft 451 kts 266°
2026-05-07 17:01 45.73628 -109.19298 37942 ft 451 kts 266°
2026-05-07 17:02 45.72483 -109.28088 37956 ft 450 kts 266°
2026-05-07 17:02 45.71333 -109.36875 37953 ft 449 kts 266°
2026-05-07 17:03 45.70177 -109.45662 37954 ft 449 kts 266°
2026-05-07 17:03 45.69016 -109.54422 37949 ft 449 kts 266°
2026-05-07 17:04 45.67850 -109.63169 37930 ft 448 kts 266°
2026-05-07 17:04 45.66675 -109.71935 37931 ft 448 kts 266°
2026-05-07 17:05 45.65501 -109.80638 37929 ft 448 kts 265°
2026-05-07 17:05 45.64316 -109.89377 37928 ft 448 kts 265°
2026-05-07 17:06 45.63121 -109.98124 37923 ft 448 kts 265°
2026-05-07 17:06 45.61922 -110.06844 37923 ft 447 kts 265°
2026-05-07 17:07 45.60715 -110.15562 37930 ft 447 kts 265°
2026-05-07 17:07 45.59508 -110.24249 37938 ft 447 kts 265°
2026-05-07 17:08 45.58294 -110.32924 37933 ft 447 kts 265°
2026-05-07 17:08 45.57070 -110.41620 37945 ft 446 kts 265°
2026-05-07 17:09 45.55842 -110.50308 37945 ft 446 kts 265°
2026-05-07 17:09 45.54614 -110.58924 37946 ft 445 kts 265°
2026-05-07 17:10 45.53375 -110.67583 37942 ft 446 kts 265°
2026-05-07 17:10 45.52129 -110.76242 37952 ft 444 kts 265°
2026-05-07 17:11 45.50878 -110.84873 37964 ft 444 kts 265°
2026-05-07 17:11 45.49625 -110.93479 37954 ft 444 kts 265°
2026-05-07 17:12 45.48371 -111.02060 37965 ft 444 kts 265°
2026-05-07 17:12 45.47316 -111.09220 37961 ft 444 kts 265°
2026-05-07 17:13 45.46042 -111.17826 37977 ft 443 kts 265°
2026-05-07 17:13 45.44765 -111.26431 37963 ft 443 kts 265°
2026-05-07 17:14 45.43494 -111.34980 37974 ft 442 kts 265°
2026-05-07 17:14 45.42212 -111.43497 37923 ft 443 kts 265°
2026-05-07 17:15 45.40915 -111.52040 37954 ft 440 kts 265°
2026-05-07 17:15 45.39624 -111.60532 37955 ft 440 kts 265°
2026-05-07 17:16 45.38322 -111.69050 37953 ft 440 kts 265°
2026-05-07 17:16 45.37015 -111.77554 37941 ft 440 kts 265°
2026-05-07 17:17 45.35705 -111.86028 37940 ft 438 kts 265°
2026-05-07 17:17 45.34396 -111.94451 37943 ft 438 kts 265°
2026-05-07 17:18 45.33079 -112.02927 37945 ft 439 kts 265°
2026-05-07 17:18 45.31752 -112.11380 37981 ft 438 kts 265°
2026-05-07 17:19 45.30418 -112.19825 37969 ft 437 kts 265°
2026-05-07 17:19 45.29092 -112.28199 37985 ft 435 kts 265°
2026-05-07 17:20 45.27762 -112.36562 37964 ft 435 kts 265°
2026-05-07 17:20 45.26415 -112.44971 37954 ft 436 kts 265°
2026-05-07 17:21 45.25065 -112.53356 38035 ft 436 kts 264°
2026-05-07 17:21 45.23784 -112.61725 38036 ft 433 kts 266°
2026-05-07 17:22 45.22629 -112.70091 38029 ft 432 kts 266°
2026-05-07 17:22 45.21480 -112.78398 38002 ft 432 kts 266°
2026-05-07 17:23 45.20293 -112.86773 37977 ft 432 kts 266°
2026-05-07 17:23 45.19089 -112.95130 37956 ft 432 kts 266°
2026-05-07 17:24 45.17884 -113.03429 37935 ft 430 kts 266°
2026-05-07 17:24 45.16676 -113.11728 37940 ft 430 kts 266°
2026-05-07 17:25 45.15459 -113.20050 37943 ft 431 kts 265°
2026-05-07 17:25 45.14241 -113.28346 37938 ft 432 kts 265°
2026-05-07 17:26 45.13007 -113.36690 37942 ft 433 kts 265°
2026-05-07 17:26 45.11772 -113.44976 37959 ft 431 kts 265°
2026-05-07 17:27 45.10528 -113.53287 37983 ft 431 kts 265°
2026-05-07 17:27 45.09281 -113.61553 38003 ft 430 kts 265°
2026-05-07 17:28 45.08029 -113.69851 38026 ft 431 kts 265°
2026-05-07 17:28 45.06777 -113.78112 38044 ft 431 kts 265°
2026-05-07 17:29 45.05508 -113.86426 38052 ft 433 kts 265°
2026-05-07 17:29 45.04234 -113.94752 38038 ft 432 kts 265°
2026-05-07 17:30 45.02954 -114.02992 37984 ft 432 kts 265°
2026-05-07 17:30 45.01684 -114.11296 38007 ft 431 kts 266°
2026-05-07 17:31 45.00739 -114.19671 37980 ft 428 kts 269°
2026-05-07 17:31 44.99905 -114.27987 37940 ft 428 kts 269°
2026-05-07 17:32 44.99021 -114.36272 37940 ft 429 kts 268°
2026-05-07 17:32 44.98089 -114.44582 37935 ft 429 kts 268°
2026-05-07 17:33 44.97140 -114.52911 37946 ft 428 kts 268°
2026-05-07 17:33 44.96184 -114.61235 37969 ft 429 kts 268°
2026-05-07 17:34 44.95229 -114.69501 37947 ft 429 kts 267°
2026-05-07 17:34 44.94262 -114.77834 37978 ft 430 kts 267°
2026-05-07 17:35 44.93290 -114.86166 37950 ft 429 kts 268°
2026-05-07 17:35 44.92316 -114.94450 37949 ft 429 kts 267°
2026-05-07 17:36 44.91348 -115.02716 37962 ft 428 kts 268°
2026-05-07 17:36 44.90376 -115.11026 37968 ft 430 kts 267°
2026-05-07 17:37 44.89374 -115.19294 37982 ft 430 kts 267°
2026-05-07 17:37 44.88355 -115.27619 37985 ft 429 kts 267°
2026-05-07 17:38 44.87366 -115.35925 37986 ft 431 kts 267°
2026-05-07 17:38 44.86349 -115.44265 37994 ft 431 kts 266°
2026-05-07 17:39 44.85312 -115.52577 37961 ft 430 kts 266°
2026-05-07 17:39 44.84285 -115.60852 38005 ft 432 kts 266°
2026-05-07 17:40 44.83245 -115.69183 38039 ft 430 kts 266°
2026-05-07 17:40 44.82207 -115.77460 38067 ft 429 kts 266°
2026-05-07 17:41 44.81164 -115.85751 38084 ft 430 kts 266°
2026-05-07 17:41 44.80115 -115.94052 38084 ft 431 kts 266°
2026-05-07 17:42 44.79058 -116.02329 38112 ft 431 kts 266°
2026-05-07 17:42 44.77992 -116.10628 38112 ft 431 kts 266°
2026-05-07 17:43 44.76952 -116.18935 38101 ft 429 kts 269°
2026-05-07 17:43 44.76565 -116.27268 38037 ft 425 kts 273°
2026-05-07 17:44 44.76387 -116.35538 38031 ft 425 kts 274°
2026-05-07 17:44 44.76237 -116.43867 38030 ft 426 kts 274°
2026-05-07 17:45 44.76072 -116.52232 38028 ft 426 kts 274°
2026-05-07 17:45 44.75895 -116.60516 38037 ft 426 kts 274°
2026-05-07 17:46 44.75708 -116.68866 38042 ft 427 kts 273°
2026-05-07 17:46 44.75516 -116.77226 38033 ft 428 kts 273°
2026-05-07 17:47 44.75316 -116.85606 38037 ft 429 kts 273°
2026-05-07 17:47 44.75111 -116.93978 38041 ft 428 kts 273°
2026-05-07 17:48 44.74898 -117.02317 38039 ft 427 kts 273°
2026-05-07 17:48 44.74679 -117.10668 38046 ft 428 kts 273°
2026-05-07 17:49 44.74455 -117.19051 38042 ft 427 kts 273°
2026-05-07 17:49 44.74224 -117.27364 38041 ft 428 kts 273°
2026-05-07 17:50 44.73988 -117.35760 38048 ft 428 kts 273°
2026-05-07 17:50 44.73746 -117.44127 38061 ft 427 kts 273°
2026-05-07 17:51 44.73500 -117.52427 38074 ft 427 kts 272°
2026-05-07 17:51 44.73246 -117.60789 38086 ft 429 kts 272°
2026-05-07 17:52 44.72984 -117.69183 38093 ft 430 kts 272°
2026-05-07 17:52 44.72717 -117.77602 38090 ft 430 kts 272°
2026-05-07 17:53 44.72444 -117.85960 38088 ft 429 kts 272°
2026-05-07 17:53 44.72165 -117.94337 38093 ft 429 kts 272°
2026-05-07 17:54 44.71882 -118.02704 38082 ft 431 kts 272°
2026-05-07 17:54 44.71589 -118.11114 38071 ft 431 kts 272°
2026-05-07 17:55 44.71288 -118.19543 38054 ft 431 kts 272°
2026-05-07 17:55 44.70981 -118.27961 38059 ft 431 kts 272°
2026-05-07 17:56 44.70669 -118.36395 38061 ft 431 kts 272°
2026-05-07 17:56 44.70352 -118.44838 38064 ft 434 kts 271°
2026-05-07 17:57 44.70081 -118.51909 38063 ft 434 kts 271°
2026-05-07 17:57 44.69690 -118.61785 38064 ft 434 kts 271°
2026-05-07 17:58 44.69354 -118.70225 38065 ft 435 kts 271°
2026-05-07 17:58 44.69007 -118.78715 38039 ft 433 kts 271°
2026-05-07 17:59 44.68655 -118.87188 38060 ft 435 kts 271°
2026-05-07 17:59 44.68299 -118.95653 38068 ft 435 kts 271°
2026-05-07 18:00 44.67935 -119.04117 38079 ft 435 kts 270°
2026-05-07 18:00 44.67562 -119.12621 38071 ft 435 kts 270°
2026-05-07 18:01 44.67184 -119.21111 38067 ft 435 kts 270°
2026-05-07 18:01 44.66802 -119.29592 38067 ft 438 kts 270°
2026-05-07 18:02 44.66209 -119.42409 38068 ft 439 kts 270°
2026-05-07 18:03 44.65806 -119.50949 38068 ft 438 kts 270°
2026-05-07 18:03 44.65396 -119.59518 38074 ft 439 kts 270°
2026-05-07 18:04 44.64947 -119.68022 38068 ft 441 kts 266°
2026-05-07 18:04 44.63544 -119.76485 38066 ft 446 kts 257°
2026-05-07 18:05 44.61619 -119.84734 38071 ft 448 kts 256°
2026-05-07 18:05 44.59586 -119.93016 38072 ft 448 kts 255°
2026-05-07 18:06 44.57566 -120.01242 38069 ft 449 kts 255°
2026-05-07 18:06 44.55542 -120.09528 38077 ft 449 kts 255°
2026-05-07 18:07 44.53511 -120.17832 38073 ft 449 kts 255°
2026-05-07 18:07 44.51489 -120.26074 38068 ft 449 kts 255°
2026-05-07 18:08 44.49453 -120.34344 38070 ft 450 kts 255°
2026-05-07 18:08 44.47405 -120.42633 38072 ft 451 kts 255°
2026-05-07 18:09 44.45348 -120.50921 38079 ft 451 kts 255°
2026-05-07 18:09 44.43622 -120.57854 38078 ft 451 kts 255°
2026-05-07 18:10 44.41557 -120.66128 38069 ft 451 kts 254°
2026-05-07 18:10 44.39471 -120.74456 38081 ft 454 kts 254°
2026-05-07 18:11 44.37374 -120.82786 38077 ft 455 kts 254°
2026-05-07 18:11 44.35271 -120.91114 38072 ft 455 kts 254°
2026-05-07 18:12 44.33159 -120.99446 38069 ft 455 kts 254°
2026-05-07 18:12 44.31049 -121.07744 38067 ft 455 kts 254°
2026-05-07 18:13 44.28924 -121.16074 38131 ft 455 kts 254°
2026-05-07 18:13 44.26800 -121.24371 38128 ft 454 kts 254°
2026-05-07 18:14 44.25196 -121.32842 38109 ft 449 kts 265°
2026-05-07 18:14 44.24488 -121.41504 38104 ft 450 kts 267°
2026-05-07 18:15 44.23928 -121.50159 38093 ft 451 kts 267°
2026-05-07 18:15 44.23373 -121.58855 38078 ft 451 kts 267°
2026-05-07 18:16 44.22796 -121.67545 38088 ft 451 kts 267°
2026-05-07 18:16 44.22201 -121.76271 38087 ft 451 kts 266°
2026-05-07 18:17 44.21598 -121.84961 38102 ft 452 kts 266°
2026-05-07 18:17 44.20984 -121.93716 38103 ft 452 kts 266°
2026-05-07 18:18 44.20366 -122.02426 38118 ft 452 kts 266°
2026-05-07 18:18 44.19740 -122.11155 38115 ft 452 kts 266°
2026-05-07 18:19 44.19112 -122.19839 38131 ft 453 kts 266°
2026-05-07 18:19 44.18474 -122.28584 38140 ft 454 kts 266°
2026-05-07 18:20 44.17826 -122.37335 38143 ft 454 kts 266°
2026-05-07 18:20 44.17172 -122.46099 38150 ft 454 kts 266°
2026-05-07 18:21 44.16519 -122.54786 38146 ft 454 kts 265°
2026-05-07 18:21 44.15850 -122.63553 38154 ft 455 kts 265°
2026-05-07 18:22 44.15175 -122.72323 38162 ft 455 kts 265°
2026-05-07 18:22 44.14539 -122.81033 38167 ft 454 kts 266°
2026-05-07 18:23 44.14034 -122.89818 38178 ft 454 kts 267°
2026-05-07 18:23 44.13537 -122.98584 38190 ft 455 kts 266°
2026-05-07 18:24 44.13012 -123.07365 38191 ft 455 kts 266°
2026-05-07 18:24 44.12471 -123.16100 38193 ft 455 kts 266°
2026-05-07 18:25 44.11462 -123.24790 38194 ft 457 kts 257°
2026-05-07 18:25 44.09711 -123.33299 38202 ft 458 kts 255°
2026-05-07 18:26 44.07830 -123.41778 38193 ft 459 kts 254°
2026-05-07 18:26 44.05944 -123.50196 38179 ft 459 kts 255°
2026-05-07 18:27 44.04055 -123.58667 38190 ft 459 kts 255°
2026-05-07 18:27 44.02172 -123.67119 38169 ft 459 kts 254°
2026-05-07 18:28 44.00278 -123.75592 38184 ft 459 kts 254°
2026-05-07 18:28 43.98374 -123.84075 38182 ft 460 kts 254°
2026-05-07 18:29 43.96472 -123.92512 38169 ft 460 kts 254°
2026-05-07 18:29 43.94552 -124.01000 38175 ft 459 kts 253°
2026-05-07 18:30 43.92641 -124.09414 38183 ft 460 kts 253°
2026-05-07 18:30 43.90708 -124.17888 38185 ft 459 kts 253°
2026-05-07 18:31 43.88776 -124.26327 38186 ft 460 kts 253°
2026-05-07 18:31 43.86846 -124.34725 38179 ft 459 kts 253°
2026-05-07 18:32 43.84901 -124.43155 38184 ft 460 kts 253°
2026-05-07 18:32 43.82944 -124.51605 38193 ft 460 kts 253°
2026-05-07 18:33 43.80982 -124.60044 38191 ft 460 kts 253°
2026-05-07 18:33 43.79019 -124.68456 38186 ft 460 kts 253°
2026-05-07 18:34 43.77043 -124.76892 38190 ft 460 kts 253°
2026-05-07 18:34 43.75058 -124.85335 38189 ft 460 kts 253°
2026-05-07 18:35 43.73072 -124.93746 38185 ft 460 kts 253°
2026-05-07 18:35 43.71089 -125.02116 38189 ft 461 kts 252°
2026-05-07 18:36 43.69075 -125.10589 38194 ft 462 kts 252°
2026-05-07 18:36 43.67073 -125.18974 38200 ft 462 kts 252°
2026-05-07 18:37 43.65055 -125.27396 38205 ft 462 kts 252°
2026-05-07 18:37 43.63032 -125.35808 38192 ft 462 kts 252°
2026-05-07 18:38 43.61000 -125.44224 38201 ft 463 kts 252°
2026-05-07 18:38 43.58966 -125.52621 38199 ft 463 kts 252°
2026-05-07 18:39 43.56918 -125.61042 38209 ft 463 kts 252°
2026-05-07 18:39 43.54876 -125.69408 38198 ft 463 kts 252°
2026-05-07 18:40 43.52813 -125.77831 38211 ft 463 kts 251°
2026-05-07 18:40 43.50743 -125.86248 38205 ft 463 kts 251°
2026-05-07 18:41 43.48672 -125.94640 38205 ft 463 kts 251°
2026-05-07 18:41 43.46589 -126.03051 38211 ft 463 kts 251°
2026-05-07 18:42 43.44515 -126.11394 38213 ft 462 kts 251°
2026-05-07 18:42 43.42424 -126.19775 38209 ft 462 kts 251°
2026-05-07 18:43 43.40333 -126.28124 38210 ft 462 kts 251°
2026-05-07 18:43 43.38238 -126.36463 38217 ft 462 kts 251°
2026-05-07 18:44 43.36134 -126.44804 38217 ft 463 kts 251°
2026-05-07 18:44 43.34022 -126.53149 38222 ft 463 kts 251°
2026-05-07 18:45 43.31897 -126.61517 38224 ft 463 kts 251°
2026-05-07 18:45 43.29476 -126.69704 38224 ft 463 kts 243°
2026-05-07 18:46 43.26426 -126.77491 38226 ft 464 kts 241°
2026-05-07 18:46 43.23277 -126.85169 38228 ft 464 kts 241°
2026-05-07 18:47 43.20096 -126.92873 38224 ft 464 kts 241°
2026-05-07 18:47 43.16924 -127.00565 38228 ft 464 kts 241°
2026-05-07 18:48 43.13748 -127.08272 38229 ft 464 kts 241°
2026-05-07 18:48 43.10570 -127.15966 38233 ft 464 kts 241°
2026-05-07 18:49 43.07388 -127.23648 38233 ft 463 kts 241°
2026-05-07 18:49 43.04229 -127.31255 38237 ft 462 kts 241°
2026-05-07 18:50 43.01053 -127.38882 38237 ft 462 kts 241°
2026-05-07 18:50 42.97868 -127.46511 38236 ft 462 kts 241°
2026-05-07 18:51 42.94674 -127.54139 38239 ft 462 kts 241°
2026-05-07 18:51 42.91486 -127.61734 38239 ft 462 kts 241°
2026-05-07 18:52 42.88284 -127.69343 38238 ft 462 kts 241°
2026-05-07 18:52 42.85101 -127.76888 38240 ft 461 kts 241°
2026-05-07 18:53 42.81893 -127.84471 38245 ft 461 kts 240°
2026-05-07 18:53 42.78698 -127.92003 38245 ft 461 kts 240°
2026-05-07 18:54 42.75467 -127.99602 38242 ft 461 kts 240°
2026-05-07 18:54 42.72262 -128.07121 38244 ft 460 kts 240°
2026-05-07 18:55 42.69043 -128.14653 38245 ft 460 kts 240°
2026-05-07 18:55 42.65828 -128.22153 38246 ft 460 kts 240°
2026-05-07 18:56 42.62621 -128.29619 38246 ft 460 kts 240°
2026-05-07 18:56 42.59385 -128.37133 38246 ft 459 kts 240°
2026-05-07 18:57 42.56176 -128.44563 38245 ft 459 kts 240°
2026-05-07 18:57 42.52945 -128.52028 38250 ft 459 kts 240°
2026-05-07 18:58 42.49715 -128.59471 38249 ft 458 kts 240°
2026-05-07 18:58 42.46466 -128.66939 38250 ft 458 kts 240°
2026-05-07 18:59 42.43232 -128.74353 38249 ft 457 kts 240°
2026-05-07 18:59 42.39996 -128.81753 38250 ft 457 kts 240°
2026-05-07 19:00 42.36752 -128.89154 38244 ft 456 kts 240°
2026-05-07 19:00 42.33529 -128.96488 38253 ft 457 kts 240°
2026-05-07 19:01 42.30277 -129.03870 38253 ft 457 kts 240°
2026-05-07 19:01 42.27020 -129.11243 38251 ft 457 kts 240°
2026-05-07 19:02 42.23777 -129.18567 38249 ft 454 kts 240°
2026-05-07 19:02 42.20532 -129.25879 38251 ft 454 kts 240°
2026-05-07 19:03 42.17296 -129.33151 38252 ft 454 kts 240°
2026-05-07 19:03 42.14031 -129.40472 38250 ft 452 kts 240°
2026-05-07 19:04 42.10795 -129.47709 38252 ft 451 kts 240°
2026-05-07 19:04 42.07553 -129.54943 38250 ft 451 kts 240°
2026-05-07 19:05 42.04312 -129.62158 38255 ft 451 kts 240°
2026-05-07 19:05 42.01081 -129.69331 38255 ft 449 kts 240°
2026-05-07 19:06 41.97848 -129.76494 38252 ft 449 kts 240°
2026-05-07 19:06 41.92978 -129.87248 38253 ft 449 kts 240°
2026-05-07 19:07 41.90257 -129.93242 38256 ft 449 kts 240°
2026-05-07 19:07 41.87017 -130.00361 38256 ft 449 kts 240°
2026-05-07 19:08 41.83749 -130.07527 38255 ft 449 kts 240°
2026-05-07 19:08 41.80495 -130.14642 38254 ft 449 kts 240°
2026-05-07 19:09 41.77226 -130.21777 38256 ft 449 kts 240°
2026-05-07 19:09 41.73974 -130.28855 38255 ft 449 kts 240°
2026-05-07 19:10 41.70696 -130.35973 38257 ft 449 kts 240°
2026-05-07 19:10 41.67424 -130.43062 38259 ft 449 kts 240°
2026-05-07 19:11 41.64129 -130.50185 38253 ft 449 kts 240°
2026-05-07 19:11 41.60846 -130.57265 38255 ft 449 kts 240°
2026-05-07 19:12 41.57549 -130.64356 38257 ft 448 kts 240°
2026-05-07 19:12 41.54266 -130.71402 38258 ft 447 kts 240°
2026-05-07 19:13 41.50999 -130.78398 38255 ft 446 kts 240°
2026-05-07 19:13 41.47705 -130.85437 38257 ft 446 kts 240°
2026-05-07 19:14 41.44414 -130.92450 38256 ft 445 kts 240°
2026-05-07 19:14 41.41138 -130.99418 38257 ft 444 kts 240°
2026-05-07 19:15 41.37852 -131.06389 38259 ft 444 kts 240°
2026-05-07 19:15 41.34588 -131.13299 38258 ft 443 kts 240°
2026-05-07 19:16 41.31308 -131.20226 38260 ft 441 kts 240°
2026-05-07 19:16 41.28050 -131.27092 38256 ft 440 kts 240°
2026-05-07 19:17 41.24759 -131.34012 38258 ft 440 kts 240°
2026-05-07 19:17 41.21511 -131.40825 38252 ft 438 kts 239°
2026-05-07 19:18 41.18245 -131.47660 38249 ft 438 kts 239°
2026-05-07 19:18 41.14984 -131.54473 38256 ft 438 kts 239°
2026-05-07 19:19 41.11726 -131.61261 38242 ft 437 kts 239°
2026-05-07 19:19 41.08444 -131.68085 38260 ft 436 kts 239°
2026-05-07 19:20 41.05181 -131.74854 38238 ft 436 kts 239°
2026-05-07 19:20 41.01916 -131.81614 38244 ft 436 kts 239°
2026-05-07 19:21 40.98650 -131.88359 38241 ft 435 kts 239°
2026-05-07 19:21 40.95399 -131.95059 38240 ft 435 kts 239°
2026-05-07 19:22 40.92125 -132.01793 38245 ft 435 kts 239°
2026-05-07 19:22 40.88859 -132.08496 38234 ft 434 kts 238°
2026-05-07 19:23 40.85574 -132.15220 38243 ft 433 kts 238°
2026-05-07 19:23 40.82310 -132.21890 38235 ft 433 kts 238°
2026-05-07 19:24 40.79034 -132.28569 38233 ft 433 kts 238°
2026-05-07 19:24 40.75764 -132.35221 38231 ft 432 kts 238°
2026-05-07 19:25 40.72483 -132.41881 38233 ft 432 kts 238°
2026-05-07 19:25 40.69208 -132.48516 38232 ft 432 kts 238°
2026-05-07 19:26 40.65941 -132.55119 38228 ft 432 kts 238°
2026-05-07 19:26 40.62656 -132.61745 38230 ft 432 kts 238°
2026-05-07 19:27 40.59391 -132.68316 38227 ft 431 kts 238°
2026-05-07 19:27 40.56098 -132.74928 38219 ft 431 kts 237°
2026-05-07 19:28 40.52813 -132.81512 38220 ft 432 kts 237°
2026-05-07 19:28 40.49513 -132.88112 38221 ft 432 kts 237°
2026-05-07 19:29 40.46215 -132.94695 38220 ft 432 kts 237°
2026-05-07 19:29 40.42918 -133.01260 38220 ft 432 kts 237°
2026-05-07 19:30 40.39603 -133.07847 38219 ft 432 kts 237°
2026-05-07 19:30 40.36292 -133.14414 38218 ft 431 kts 237°
2026-05-07 19:31 40.32982 -133.20963 38214 ft 431 kts 237°
2026-05-07 19:31 40.29670 -133.27505 38211 ft 431 kts 237°
2026-05-07 19:32 40.26352 -133.34043 38211 ft 431 kts 237°
2026-05-07 19:32 40.23031 -133.40574 38212 ft 431 kts 237°
2026-05-07 19:33 40.19710 -133.47091 38207 ft 431 kts 237°
2026-05-07 19:33 40.16396 -133.53581 38203 ft 431 kts 237°
2026-05-07 19:34 40.13050 -133.60120 38205 ft 431 kts 236°
2026-05-07 19:34 40.09738 -133.66580 38206 ft 431 kts 236°
2026-05-07 19:35 40.06395 -133.73085 38200 ft 431 kts 236°
2026-05-07 19:35 40.03060 -133.79563 38200 ft 431 kts 236°
2026-05-07 19:36 39.99717 -133.86042 38200 ft 431 kts 236°
2026-05-07 19:36 39.96371 -133.92513 38203 ft 431 kts 236°
2026-05-07 19:37 39.93020 -133.98983 38200 ft 431 kts 236°
2026-05-07 19:37 39.89665 -134.05445 38196 ft 431 kts 236°
2026-05-07 19:38 39.86310 -134.11895 38191 ft 431 kts 236°
2026-05-07 19:38 39.82952 -134.18337 38191 ft 431 kts 236°
2026-05-07 19:39 39.79586 -134.24782 38185 ft 431 kts 236°
2026-05-07 19:39 39.76212 -134.31229 38187 ft 431 kts 236°
2026-05-07 19:40 39.72833 -134.37667 38184 ft 432 kts 236°
2026-05-07 19:40 39.69452 -134.44102 38183 ft 432 kts 236°
2026-05-07 19:41 39.66075 -134.50517 38175 ft 432 kts 236°
2026-05-07 19:41 39.62680 -134.56953 38178 ft 432 kts 236°
2026-05-07 19:42 39.59277 -134.63389 38173 ft 432 kts 236°
2026-05-07 19:42 39.55879 -134.69802 38174 ft 432 kts 236°
2026-05-07 19:43 39.52469 -134.76227 38171 ft 432 kts 236°
2026-05-07 19:43 39.49059 -134.82637 38173 ft 432 kts 236°
2026-05-07 19:44 39.45659 -134.89015 38166 ft 432 kts 236°
2026-05-07 19:44 39.42242 -134.95415 38280 ft 433 kts 236°
2026-05-07 19:45 39.40542 -134.98595 38521 ft 431 kts 236°
2026-05-07 19:45 39.38822 -135.01810 38731 ft 430 kts 236°
2026-05-07 19:45 39.37127 -135.04978 38923 ft 430 kts 236°
2026-05-07 19:45 39.35418 -135.08168 39061 ft 430 kts 236°
2026-05-07 19:46 39.33729 -135.11317 39195 ft 430 kts 236°
2026-05-07 19:46 39.32036 -135.14472 39310 ft 430 kts 236°
2026-05-07 19:46 39.30325 -135.17654 39436 ft 430 kts 236°
2026-05-07 19:46 39.28626 -135.20814 39563 ft 430 kts 236°
2026-05-07 19:47 39.26909 -135.24003 39692 ft 429 kts 236°
2026-05-07 19:47 39.25219 -135.27139 39797 ft 430 kts 236°
2026-05-07 19:47 39.23502 -135.30322 39907 ft 430 kts 236°
2026-05-07 19:47 39.21800 -135.33474 40012 ft 430 kts 236°
2026-05-07 19:48 39.18378 -135.39801 40159 ft 431 kts 236°
2026-05-07 19:48 39.14951 -135.46126 40150 ft 431 kts 236°
2026-05-07 19:49 39.11515 -135.52455 40143 ft 431 kts 236°
2026-05-07 19:49 39.08088 -135.58754 40157 ft 431 kts 236°
2026-05-07 19:50 39.04653 -135.65056 40141 ft 430 kts 236°
2026-05-07 19:50 39.01218 -135.71346 40137 ft 430 kts 236°
2026-05-07 19:51 38.97781 -135.77627 40142 ft 430 kts 236°
2026-05-07 19:51 38.94342 -135.83898 40140 ft 429 kts 236°
2026-05-07 19:52 38.90909 -135.90148 40136 ft 429 kts 236°
2026-05-07 19:52 38.87470 -135.96396 40133 ft 428 kts 236°
2026-05-07 19:53 38.84034 -136.02627 40126 ft 428 kts 236°
2026-05-07 19:53 38.80598 -136.08844 40129 ft 427 kts 236°
2026-05-07 19:54 38.77168 -136.15040 40127 ft 426 kts 236°
2026-05-07 19:54 38.73738 -136.21225 40124 ft 426 kts 236°
2026-05-07 19:55 38.70303 -136.27406 40120 ft 425 kts 236°
2026-05-07 19:55 38.66874 -136.33565 40119 ft 425 kts 236°
2026-05-07 19:56 38.63434 -136.39732 40116 ft 425 kts 236°
2026-05-07 19:56 38.60005 -136.45867 40111 ft 424 kts 236°
2026-05-07 19:57 38.56577 -136.51990 40109 ft 424 kts 236°
2026-05-07 19:57 38.53143 -136.58109 40108 ft 424 kts 236°
2026-05-07 19:58 38.49704 -136.64227 40105 ft 424 kts 237°
2026-05-07 19:58 38.46272 -136.70321 40102 ft 423 kts 237°
2026-05-07 19:59 38.42841 -136.76403 40104 ft 423 kts 237°
2026-05-07 19:59 38.39409 -136.82474 40101 ft 423 kts 237°
2026-05-07 20:00 38.35965 -136.88557 40096 ft 422 kts 237°
2026-05-07 20:00 38.32536 -136.94601 40100 ft 422 kts 237°
2026-05-07 20:01 38.29103 -137.00641 40103 ft 422 kts 237°
2026-05-07 20:01 38.25662 -137.06685 40084 ft 422 kts 237°
2026-05-07 20:02 38.22216 -137.12725 40096 ft 422 kts 237°
2026-05-07 20:02 38.18768 -137.18757 40090 ft 422 kts 237°
2026-05-07 20:03 38.15296 -137.24821 40100 ft 422 kts 237°
2026-05-07 20:03 38.11865 -137.30801 40091 ft 422 kts 237°
2026-05-07 20:04 38.08386 -137.36855 40095 ft 422 kts 237°
2026-05-07 20:04 38.04927 -137.42862 40088 ft 422 kts 237°
2026-05-07 20:05 38.01469 -137.48858 40090 ft 422 kts 237°
2026-05-07 20:05 37.98010 -137.54843 40090 ft 422 kts 237°
2026-05-07 20:06 37.94549 -137.60820 40080 ft 421 kts 237°
2026-05-07 20:06 37.91664 -137.65794 40088 ft 421 kts 237°
2026-05-07 20:07 37.88205 -137.71751 40089 ft 421 kts 236°
2026-05-07 20:07 37.84718 -137.77745 40092 ft 421 kts 237°
2026-05-07 20:08 37.81249 -137.83696 40078 ft 421 kts 236°
2026-05-07 20:08 37.77793 -137.89614 40080 ft 421 kts 236°
2026-05-07 20:09 37.74320 -137.95551 40079 ft 421 kts 236°
2026-05-07 20:10 37.69086 -138.04476 40093 ft 421 kts 236°
2026-05-07 20:10 37.65608 -138.10395 40080 ft 421 kts 236°
2026-05-07 20:11 37.62125 -138.16311 40088 ft 421 kts 236°
2026-05-07 20:11 37.58626 -138.22243 40085 ft 421 kts 236°
2026-05-07 20:12 37.55131 -138.28158 40076 ft 421 kts 236°
2026-05-07 20:12 37.51638 -138.34061 40075 ft 421 kts 236°
2026-05-07 20:13 37.48115 -138.40001 40090 ft 421 kts 236°
2026-05-07 20:13 37.44617 -138.45890 40083 ft 421 kts 236°
2026-05-07 20:14 37.41106 -138.51789 40093 ft 421 kts 236°
2026-05-07 20:14 37.37608 -138.57659 40090 ft 421 kts 236°
2026-05-07 20:15 37.34089 -138.63552 40088 ft 421 kts 236°
2026-05-07 20:15 37.30566 -138.69439 40091 ft 421 kts 236°
2026-05-07 20:16 37.27042 -138.75320 40087 ft 421 kts 236°
2026-05-07 20:16 37.23517 -138.81192 40093 ft 421 kts 236°
2026-05-07 20:17 37.19997 -138.87045 40092 ft 421 kts 236°
2026-05-07 20:17 37.16466 -138.92907 40100 ft 421 kts 236°
2026-05-07 20:18 37.12952 -138.98729 40095 ft 421 kts 236°
2026-05-07 20:18 37.09409 -139.04589 40096 ft 422 kts 236°
2026-05-07 20:19 37.05868 -139.10437 40105 ft 422 kts 236°
2026-05-07 20:19 37.02323 -139.16278 40098 ft 421 kts 236°
2026-05-07 20:20 36.98769 -139.22127 40100 ft 420 kts 236°
2026-05-07 20:20 36.95233 -139.27935 40090 ft 421 kts 236°
2026-05-07 20:21 36.91700 -139.33730 40104 ft 421 kts 235°
2026-05-07 20:21 36.88133 -139.39569 40099 ft 420 kts 235°
2026-05-07 20:22 36.84582 -139.45371 40083 ft 420 kts 235°
2026-05-07 20:22 36.81032 -139.51164 40104 ft 422 kts 235°
2026-05-07 20:23 36.77460 -139.56980 40104 ft 421 kts 235°
2026-05-07 20:23 36.73921 -139.62733 40071 ft 420 kts 235°
2026-05-07 20:24 36.70355 -139.68521 40104 ft 422 kts 235°
2026-05-07 20:24 36.66776 -139.74320 40104 ft 422 kts 235°
2026-05-07 20:25 36.63196 -139.80109 40105 ft 420 kts 235°
2026-05-07 20:25 36.59637 -139.85856 40106 ft 421 kts 235°
2026-05-07 20:26 36.56062 -139.91619 40106 ft 421 kts 235°
2026-05-07 20:26 36.52487 -139.97372 40124 ft 421 kts 235°
2026-05-07 20:27 36.48909 -140.03119 40110 ft 421 kts 235°
2026-05-07 20:27 36.45329 -140.08860 40108 ft 421 kts 235°
2026-05-07 20:28 36.41742 -140.14603 40111 ft 421 kts 235°
2026-05-07 20:28 36.38150 -140.20345 40124 ft 422 kts 235°
2026-05-07 20:29 36.34552 -140.26086 40110 ft 421 kts 235°
2026-05-07 20:29 36.30942 -140.31836 40111 ft 421 kts 235°
2026-05-07 20:30 36.27367 -140.37521 40094 ft 421 kts 235°
2026-05-07 20:30 36.23739 -140.43282 40130 ft 423 kts 234°
2026-05-07 20:31 36.20135 -140.48992 40116 ft 421 kts 234°
2026-05-07 20:31 36.16529 -140.54697 40097 ft 421 kts 234°
2026-05-07 20:32 36.12901 -140.60429 40112 ft 422 kts 234°
2026-05-07 20:32 36.09283 -140.66135 40122 ft 422 kts 234°
2026-05-07 20:33 36.05681 -140.71804 40111 ft 421 kts 234°
2026-05-07 20:33 36.02058 -140.77499 40118 ft 421 kts 234°
2026-05-07 20:34 35.98437 -140.83181 40119 ft 421 kts 234°
2026-05-07 20:34 35.94807 -140.88867 40133 ft 421 kts 234°
2026-05-07 20:35 35.91198 -140.94511 40109 ft 420 kts 234°
2026-05-07 20:35 35.87582 -141.00159 40120 ft 421 kts 234°
2026-05-07 20:36 35.83951 -141.05819 40118 ft 421 kts 234°
2026-05-07 20:36 35.80312 -141.11480 40101 ft 421 kts 234°
2026-05-07 20:37 35.76690 -141.17109 40123 ft 422 kts 234°
2026-05-07 20:37 35.73045 -141.22763 40123 ft 422 kts 234°
2026-05-07 20:38 35.69386 -141.28429 40119 ft 422 kts 234°
2026-05-07 20:38 35.65729 -141.34083 40138 ft 423 kts 234°
2026-05-07 20:39 35.62062 -141.39743 40133 ft 423 kts 234°
2026-05-07 20:39 35.58397 -141.45390 40121 ft 422 kts 234°
2026-05-07 20:40 35.54734 -141.51026 40118 ft 422 kts 234°
2026-05-07 20:40 35.51064 -141.56664 40125 ft 424 kts 234°
2026-05-07 20:41 35.47388 -141.62301 40130 ft 423 kts 234°
2026-05-07 20:41 35.43736 -141.67891 40128 ft 422 kts 234°
2026-05-07 20:42 35.40060 -141.73509 40124 ft 423 kts 234°
2026-05-07 20:42 35.36375 -141.79134 40126 ft 423 kts 234°
2026-05-07 20:43 35.32672 -141.84774 40131 ft 422 kts 234°
2026-05-07 20:43 35.29015 -141.90337 40121 ft 422 kts 234°
2026-05-07 20:44 35.25312 -141.95962 40131 ft 423 kts 234°
2026-05-07 20:44 35.21616 -142.01566 40131 ft 424 kts 234°
2026-05-07 20:45 35.17922 -142.07158 40143 ft 423 kts 234°
2026-05-07 20:45 35.14235 -142.12730 40131 ft 423 kts 234°
2026-05-07 20:46 35.10530 -142.18322 40132 ft 424 kts 234°
2026-05-07 20:46 35.06825 -142.23902 40132 ft 424 kts 234°
2026-05-07 20:47 35.03118 -142.29479 40144 ft 424 kts 234°
2026-05-07 20:47 34.99406 -142.35054 40138 ft 423 kts 234°
2026-05-07 20:48 34.95699 -142.40609 40137 ft 423 kts 233°
2026-05-07 20:48 34.91970 -142.46183 40138 ft 423 kts 233°
2026-05-07 20:49 34.88253 -142.51731 40138 ft 424 kts 233°
2026-05-07 20:49 34.84530 -142.57281 40138 ft 423 kts 233°
2026-05-07 20:50 34.80807 -142.62821 40141 ft 423 kts 233°
2026-05-07 20:50 34.77080 -142.68360 40140 ft 423 kts 233°
2026-05-07 20:51 34.73348 -142.73897 40143 ft 423 kts 233°
2026-05-07 20:51 34.69625 -142.79412 40146 ft 422 kts 233°
2026-05-07 20:52 34.65900 -142.84921 40140 ft 421 kts 233°
2026-05-07 20:52 34.62189 -142.90402 40137 ft 422 kts 233°
2026-05-07 20:53 34.58461 -142.95898 40143 ft 423 kts 233°
2026-05-07 20:53 34.54726 -143.01397 40162 ft 423 kts 233°
2026-05-07 20:54 34.50992 -143.06884 40145 ft 421 kts 233°
2026-05-07 20:54 34.47259 -143.12362 40145 ft 422 kts 233°
2026-05-07 20:55 34.43500 -143.17871 40144 ft 423 kts 233°
2026-05-07 20:55 34.39756 -143.23348 40143 ft 423 kts 233°
2026-05-07 20:56 34.36016 -143.28811 40133 ft 422 kts 233°
2026-05-07 20:56 34.32278 -143.34263 40149 ft 423 kts 233°
2026-05-07 20:57 34.28508 -143.39754 40146 ft 423 kts 233°
2026-05-07 20:57 34.24747 -143.45222 40146 ft 423 kts 233°
2026-05-07 20:58 34.20994 -143.50670 40144 ft 424 kts 233°
2026-05-07 20:58 34.17220 -143.56142 40148 ft 424 kts 233°
2026-05-07 20:59 34.13430 -143.61626 40149 ft 425 kts 233°
2026-05-07 20:59 34.09655 -143.67081 40148 ft 425 kts 233°
2026-05-07 21:00 34.05869 -143.72545 40153 ft 426 kts 233°
2026-05-07 21:00 34.02053 -143.78042 40158 ft 425 kts 233°
2026-05-07 21:01 33.98268 -143.83486 40154 ft 425 kts 233°
2026-05-07 21:01 33.94477 -143.88931 40134 ft 425 kts 233°
2026-05-07 21:02 33.90674 -143.94385 40156 ft 426 kts 233°
2026-05-07 21:02 33.86860 -143.99847 40165 ft 427 kts 233°
2026-05-07 21:03 33.83055 -144.05287 40153 ft 425 kts 233°
2026-05-07 21:03 33.79227 -144.10750 40147 ft 425 kts 233°
2026-05-07 21:04 33.76058 -144.15269 40157 ft 427 kts 233°
2026-05-07 21:04 33.71595 -144.21621 40158 ft 427 kts 233°
2026-05-07 21:05 33.67764 -144.27065 40163 ft 426 kts 233°
2026-05-07 21:05 33.64585 -144.31576 40144 ft 425 kts 233°
2026-05-07 21:06 33.60754 -144.37006 40161 ft 427 kts 232°
2026-05-07 21:06 33.56902 -144.42456 40165 ft 427 kts 232°
2026-05-07 21:07 33.53064 -144.47878 40162 ft 427 kts 232°
2026-05-07 21:07 33.49230 -144.53288 40157 ft 427 kts 232°
2026-05-07 21:08 33.45381 -144.58710 40162 ft 428 kts 232°
2026-05-07 21:08 33.41533 -144.64121 40164 ft 428 kts 232°
2026-05-07 21:09 33.37678 -144.69535 40164 ft 428 kts 232°
2026-05-07 21:09 33.33814 -144.74953 40162 ft 428 kts 232°
2026-05-07 21:10 33.29961 -144.80348 40166 ft 426 kts 232°
2026-05-07 21:10 33.26130 -144.85704 40167 ft 426 kts 232°
2026-05-07 21:11 33.22281 -144.91078 40164 ft 426 kts 232°
2026-05-07 21:11 33.16493 -144.99145 40165 ft 427 kts 232°
2026-05-07 21:12 33.12625 -145.04525 40167 ft 426 kts 232°
2026-05-07 21:12 33.08778 -145.09866 40167 ft 426 kts 232°
2026-05-07 21:13 33.04908 -145.15234 40153 ft 426 kts 232°
2026-05-07 21:13 33.01035 -145.20598 40168 ft 428 kts 232°
2026-05-07 21:14 32.97154 -145.25965 40170 ft 428 kts 232°
2026-05-07 21:14 32.93265 -145.31334 40166 ft 427 kts 232°
2026-05-07 21:15 32.89410 -145.36648 40155 ft 427 kts 232°
2026-05-07 21:15 32.85518 -145.42007 40164 ft 428 kts 232°
2026-05-07 21:16 32.81621 -145.47365 40157 ft 429 kts 232°
2026-05-07 21:16 32.77718 -145.52722 40191 ft 429 kts 232°
2026-05-07 21:17 32.73825 -145.58057 40170 ft 428 kts 232°
2026-05-07 21:17 32.69919 -145.63403 40174 ft 428 kts 232°
2026-05-07 21:18 32.66022 -145.68730 40170 ft 429 kts 232°
2026-05-07 21:18 32.62108 -145.74071 40172 ft 429 kts 232°
2026-05-07 21:19 32.58191 -145.79408 40174 ft 429 kts 232°
2026-05-07 21:19 32.54265 -145.84750 40170 ft 430 kts 232°
2026-05-07 21:20 32.50335 -145.90091 40171 ft 429 kts 232°
2026-05-07 21:20 32.46404 -145.95423 40172 ft 429 kts 232°
2026-05-07 21:21 32.42499 -146.00715 40164 ft 430 kts 231°
2026-05-07 21:21 32.38555 -146.06052 40171 ft 431 kts 231°
2026-05-07 21:22 32.34604 -146.11389 40170 ft 431 kts 231°
2026-05-07 21:22 32.30649 -146.16724 40173 ft 431 kts 231°
2026-05-07 21:23 32.26711 -146.22029 40159 ft 431 kts 231°
2026-05-07 21:23 32.22725 -146.27392 40176 ft 434 kts 231°
2026-05-07 21:24 32.18766 -146.32709 40179 ft 433 kts 231°
2026-05-07 21:24 32.14792 -146.38038 40175 ft 432 kts 231°
2026-05-07 21:25 32.10809 -146.43373 40161 ft 432 kts 231°
2026-05-07 21:25 32.06826 -146.48701 40178 ft 434 kts 231°
2026-05-07 21:26 32.02831 -146.54036 40175 ft 434 kts 231°
2026-05-07 21:26 31.98835 -146.59365 40182 ft 434 kts 231°
2026-05-07 21:27 31.94847 -146.64674 40166 ft 433 kts 231°
2026-05-07 21:27 31.90854 -146.69986 40181 ft 434 kts 231°
2026-05-07 21:28 31.86851 -146.75301 40181 ft 434 kts 231°
2026-05-07 21:28 31.82837 -146.80625 40181 ft 434 kts 231°
2026-05-07 21:29 31.78829 -146.85931 40189 ft 434 kts 231°
2026-05-07 21:29 31.74827 -146.91221 40183 ft 433 kts 231°
2026-05-07 21:30 31.70820 -146.96513 40185 ft 433 kts 231°
2026-05-07 21:30 31.66842 -147.01759 40185 ft 433 kts 231°
2026-05-07 21:31 31.62830 -147.07041 40183 ft 433 kts 231°
2026-05-07 21:31 31.58820 -147.12315 40189 ft 435 kts 231°
2026-05-07 21:32 31.54788 -147.17608 40181 ft 434 kts 231°
2026-05-07 21:32 31.50786 -147.22856 40181 ft 434 kts 231°
2026-05-07 21:33 31.46767 -147.28119 40184 ft 434 kts 231°
2026-05-07 21:33 31.42735 -147.33391 40182 ft 435 kts 230°
2026-05-07 21:34 31.38711 -147.38646 40189 ft 435 kts 230°
2026-05-07 21:34 31.34652 -147.43938 40181 ft 434 kts 230°
2026-05-07 21:35 31.30640 -147.49161 40184 ft 434 kts 230°
2026-05-07 21:35 31.26583 -147.54436 40174 ft 434 kts 230°
2026-05-07 21:36 31.22552 -147.59672 40184 ft 436 kts 230°
2026-05-07 21:36 31.18473 -147.64960 40183 ft 436 kts 230°
2026-05-07 21:37 31.14417 -147.70211 40184 ft 435 kts 230°
2026-05-07 21:37 31.10370 -147.75444 40184 ft 435 kts 230°
2026-05-07 21:38 31.06309 -147.80690 40184 ft 437 kts 230°
2026-05-07 21:38 31.02257 -147.85915 40185 ft 437 kts 230°
2026-05-07 21:39 30.98174 -147.91173 40185 ft 437 kts 230°
2026-05-07 21:39 30.94096 -147.96416 40184 ft 436 kts 230°
2026-05-07 21:40 30.90024 -148.01646 40183 ft 437 kts 230°
2026-05-07 21:40 30.85943 -148.06880 40184 ft 437 kts 230°
2026-05-07 21:41 30.81863 -148.12106 40184 ft 437 kts 230°
2026-05-07 21:41 30.77778 -148.17330 40187 ft 437 kts 230°
2026-05-07 21:42 30.73668 -148.22581 40180 ft 437 kts 230°
2026-05-07 21:42 30.69598 -148.27772 40188 ft 438 kts 230°
2026-05-07 21:43 30.65492 -148.33002 40188 ft 438 kts 230°
2026-05-07 21:43 30.61385 -148.38226 40192 ft 438 kts 230°
2026-05-07 21:44 30.57271 -148.43452 40189 ft 438 kts 230°
2026-05-07 21:44 30.53149 -148.48682 40198 ft 440 kts 229°
2026-05-07 21:45 30.49020 -148.53912 40190 ft 439 kts 229°
2026-05-07 21:45 30.44921 -148.59098 40191 ft 439 kts 229°
2026-05-07 21:46 30.40791 -148.64317 40187 ft 439 kts 229°
2026-05-07 21:46 30.36672 -148.69515 40188 ft 440 kts 229°
2026-05-07 21:47 30.32527 -148.74738 40190 ft 441 kts 229°
2026-05-07 21:47 30.28350 -148.79994 40191 ft 442 kts 229°
2026-05-07 21:48 30.24196 -148.85213 40187 ft 442 kts 229°
2026-05-07 21:48 30.20056 -148.90410 40179 ft 442 kts 229°
2026-05-07 21:49 30.15877 -148.95648 40190 ft 443 kts 229°
2026-05-07 21:49 30.11707 -149.00868 40185 ft 443 kts 229°
2026-05-07 21:50 30.07513 -149.06110 40190 ft 443 kts 229°
2026-05-07 21:50 30.03329 -149.11338 40186 ft 442 kts 229°
2026-05-07 21:51 29.99158 -149.16545 40190 ft 442 kts 229°
2026-05-07 21:51 29.94998 -149.21730 40190 ft 442 kts 229°
2026-05-07 21:52 29.90823 -149.26930 40190 ft 442 kts 229°
2026-05-07 21:52 29.86631 -149.32143 40200 ft 442 kts 229°
2026-05-07 21:53 29.82463 -149.37318 40177 ft 441 kts 229°
2026-05-07 21:53 29.78297 -149.42486 40190 ft 443 kts 229°
2026-05-07 21:54 29.74112 -149.47670 40190 ft 443 kts 229°
2026-05-07 21:54 29.69910 -149.52868 40190 ft 443 kts 229°
2026-05-07 21:55 29.65694 -149.58076 40189 ft 443 kts 229°
2026-05-07 21:55 29.61496 -149.63255 40190 ft 443 kts 229°
2026-05-07 21:56 29.57291 -149.68436 40190 ft 443 kts 229°
2026-05-07 21:56 29.53085 -149.73613 40189 ft 443 kts 229°
2026-05-07 21:57 29.48880 -149.78779 40190 ft 443 kts 229°
2026-05-07 21:57 29.44671 -149.83946 40179 ft 444 kts 228°
2026-05-07 21:58 29.40453 -149.89116 40196 ft 445 kts 228°
2026-05-07 21:58 29.36217 -149.94301 40189 ft 445 kts 228°
2026-05-07 21:59 29.31979 -149.99481 40189 ft 445 kts 228°
2026-05-07 21:59 29.27776 -150.04613 40189 ft 444 kts 228°
2026-05-07 22:00 29.23538 -150.09782 40191 ft 445 kts 228°
2026-05-07 22:00 29.19301 -150.14941 40193 ft 446 kts 228°
2026-05-07 22:01 29.15048 -150.20114 40193 ft 445 kts 228°
2026-05-07 22:01 29.10807 -150.25264 40192 ft 445 kts 228°
2026-05-07 22:02 29.06570 -150.30404 40174 ft 444 kts 228°
2026-05-07 22:02 29.03020 -150.34706 40192 ft 446 kts 228°
2026-05-07 22:03 28.98778 -150.39840 40192 ft 447 kts 228°
2026-05-07 22:03 28.94491 -150.45022 40192 ft 447 kts 228°
2026-05-07 22:04 28.90225 -150.50170 40192 ft 446 kts 228°
2026-05-07 22:04 28.85988 -150.55278 40188 ft 446 kts 227°
2026-05-07 22:05 28.81720 -150.60418 40190 ft 447 kts 227°
2026-05-07 22:05 28.77436 -150.65570 40192 ft 447 kts 227°
2026-05-07 22:06 28.73154 -150.70712 40190 ft 447 kts 227°
2026-05-07 22:06 28.68861 -150.75860 40193 ft 447 kts 227°
2026-05-07 22:07 28.64582 -150.80987 40188 ft 448 kts 227°
2026-05-07 22:07 28.60294 -150.86117 40188 ft 448 kts 227°
2026-05-07 22:08 28.55999 -150.91249 40189 ft 448 kts 227°
2026-05-07 22:08 28.51700 -150.96380 40191 ft 448 kts 227°
2026-05-07 22:09 28.47403 -151.01500 40190 ft 448 kts 227°
2026-05-07 22:09 28.43097 -151.06627 40190 ft 449 kts 227°
2026-05-07 22:10 28.38794 -151.11742 40189 ft 448 kts 227°
2026-05-07 22:10 28.34484 -151.16860 40186 ft 448 kts 227°
2026-05-07 22:11 28.30174 -151.21971 40190 ft 448 kts 227°
2026-05-07 22:11 28.25862 -151.27078 40178 ft 449 kts 227°
2026-05-07 22:12 28.21526 -151.32208 40191 ft 451 kts 227°
2026-05-07 22:12 28.17185 -151.37337 40185 ft 450 kts 227°
2026-05-07 22:13 28.12860 -151.42439 40187 ft 450 kts 227°
2026-05-07 22:13 28.08525 -151.47548 40185 ft 450 kts 227°
2026-05-07 22:14 28.04165 -151.52679 40189 ft 450 kts 227°
2026-05-07 22:14 27.99854 -151.57747 40188 ft 450 kts 227°
2026-05-07 22:15 27.95508 -151.62850 40187 ft 450 kts 226°
2026-05-07 22:15 27.91174 -151.67932 40185 ft 450 kts 226°
2026-05-07 22:16 27.86824 -151.73027 40186 ft 450 kts 226°
2026-05-07 22:16 27.82479 -151.78110 40187 ft 451 kts 226°
2026-05-07 22:17 27.78129 -151.83192 40185 ft 451 kts 226°
2026-05-07 22:17 27.73758 -151.88293 40185 ft 451 kts 226°
2026-05-07 22:18 27.67217 -151.95913 40185 ft 450 kts 226°
2026-05-07 22:19 27.62855 -152.00989 40179 ft 451 kts 226°
2026-05-07 22:19 27.58479 -152.06074 40187 ft 452 kts 226°
2026-05-07 22:20 27.54105 -152.11149 40183 ft 452 kts 226°
2026-05-07 22:20 27.49732 -152.16217 40183 ft 452 kts 226°
2026-05-07 22:21 27.45363 -152.21275 40184 ft 452 kts 226°
2026-05-07 22:21 27.40978 -152.26346 40184 ft 452 kts 226°
2026-05-07 22:22 27.36591 -152.31411 40182 ft 452 kts 226°
2026-05-07 22:22 27.32199 -152.36478 40183 ft 452 kts 226°
2026-05-07 22:23 27.27797 -152.41550 40182 ft 452 kts 226°
2026-05-07 22:23 27.23394 -152.46616 40180 ft 452 kts 226°
2026-05-07 22:24 27.19000 -152.51667 40180 ft 454 kts 225°
2026-05-07 22:24 27.14583 -152.56736 40189 ft 454 kts 226°
2026-05-07 22:25 27.10188 -152.61776 40186 ft 454 kts 226°
2026-05-07 22:25 27.05754 -152.66854 40188 ft 454 kts 225°
2026-05-07 22:26 27.01337 -152.71905 40176 ft 454 kts 225°
2026-05-07 22:26 26.96921 -152.76952 40180 ft 455 kts 225°
2026-05-07 22:27 26.92475 -152.82024 40175 ft 456 kts 225°
2026-05-07 22:27 26.88043 -152.87075 40182 ft 455 kts 225°
2026-05-07 22:28 26.83610 -152.92122 40180 ft 455 kts 225°
2026-05-07 22:28 26.79162 -152.97179 40175 ft 455 kts 225°
2026-05-07 22:29 26.74715 -153.02229 40180 ft 456 kts 225°
2026-05-07 22:29 26.70269 -153.07273 40179 ft 457 kts 225°
2026-05-07 22:30 26.65813 -153.12321 40177 ft 457 kts 225°
2026-05-07 22:30 26.61351 -153.17371 40178 ft 456 kts 225°
2026-05-07 22:31 26.56879 -153.22425 40178 ft 456 kts 225°
2026-05-07 22:31 26.52443 -153.27434 40178 ft 457 kts 225°
2026-05-07 22:32 26.47967 -153.32481 40174 ft 458 kts 225°
2026-05-07 22:32 26.43469 -153.37547 40172 ft 458 kts 225°
2026-05-07 22:33 26.38996 -153.42579 40175 ft 458 kts 225°
2026-05-07 22:33 26.34508 -153.47622 40175 ft 457 kts 225°
2026-05-07 22:34 26.30028 -153.52650 40175 ft 458 kts 225°
2026-05-07 22:34 26.25542 -153.57679 40173 ft 459 kts 225°
2026-05-07 22:35 26.21020 -153.62742 40171 ft 459 kts 225°
2026-05-07 22:35 26.16533 -153.67762 40175 ft 459 kts 225°
2026-05-07 22:36 26.12030 -153.72792 40176 ft 459 kts 225°
2026-05-07 22:36 26.07544 -153.77798 40175 ft 459 kts 225°
2026-05-07 22:37 26.03004 -153.82859 40172 ft 460 kts 225°
2026-05-07 22:37 25.98478 -153.87897 40172 ft 460 kts 225°
2026-05-07 22:38 25.93970 -153.92909 40172 ft 460 kts 225°
2026-05-07 22:38 25.89470 -153.97908 40172 ft 460 kts 225°
2026-05-07 22:39 25.84925 -154.02951 40172 ft 460 kts 225°
2026-05-07 22:39 25.80410 -154.07954 40167 ft 459 kts 225°
2026-05-07 22:40 25.75876 -154.12973 40169 ft 459 kts 225°
2026-05-07 22:40 25.71388 -154.17936 40171 ft 459 kts 225°
2026-05-07 22:41 25.66848 -154.22950 40166 ft 459 kts 225°
2026-05-07 22:41 25.62315 -154.27949 40165 ft 461 kts 225°
2026-05-07 22:42 25.57778 -154.32949 40168 ft 461 kts 225°
2026-05-07 22:42 25.53234 -154.37950 40168 ft 461 kts 225°
2026-05-07 22:43 25.48694 -154.42941 40165 ft 461 kts 225°
2026-05-07 22:43 25.44129 -154.47955 40164 ft 461 kts 225°
2026-05-07 22:44 25.39574 -154.52951 40164 ft 462 kts 225°
2026-05-07 22:44 25.35039 -154.57920 40165 ft 462 kts 225°
2026-05-07 22:45 25.30451 -154.62941 40165 ft 462 kts 225°
2026-05-07 22:45 25.25905 -154.67912 40165 ft 462 kts 225°
2026-05-07 22:46 25.21332 -154.72905 40163 ft 462 kts 225°
2026-05-07 22:46 25.16742 -154.77912 40160 ft 463 kts 225°
2026-05-07 22:47 25.12166 -154.82898 40160 ft 464 kts 225°
2026-05-07 22:47 25.07551 -154.87921 40160 ft 464 kts 225°
2026-05-07 22:48 25.02948 -154.92925 40159 ft 464 kts 225°
2026-05-07 22:48 24.98362 -154.97905 40168 ft 464 kts 225°
2026-05-07 22:49 24.93757 -155.02900 40152 ft 464 kts 224°
2026-05-07 22:49 24.89154 -155.07888 40157 ft 465 kts 224°
2026-05-07 22:50 24.84547 -155.12875 40161 ft 465 kts 224°
2026-05-07 22:50 24.79932 -155.17865 40157 ft 465 kts 224°
2026-05-07 22:51 24.75305 -155.22862 40156 ft 465 kts 224°
2026-05-07 22:51 24.71006 -155.28165 40154 ft 465 kts 233°
2026-05-07 22:52 24.67206 -155.33956 40154 ft 466 kts 234°
2026-05-07 22:52 24.63504 -155.39805 40154 ft 466 kts 235°
2026-05-07 22:53 24.59805 -155.45657 40152 ft 466 kts 234°
2026-05-07 22:53 24.56098 -155.51488 40152 ft 466 kts 234°
2026-05-07 22:54 24.52386 -155.57309 40148 ft 466 kts 234°
2026-05-07 22:54 24.48665 -155.63134 40144 ft 466 kts 234°
2026-05-07 22:55 24.44954 -155.68935 40150 ft 466 kts 234°
2026-05-07 22:55 24.41219 -155.74767 40152 ft 466 kts 234°
2026-05-07 22:56 24.37490 -155.80582 40147 ft 467 kts 234°
2026-05-07 22:56 24.33752 -155.86404 40140 ft 467 kts 234°
2026-05-07 22:57 24.30002 -155.92238 40144 ft 467 kts 234°
2026-05-07 22:57 24.26894 -155.97067 40145 ft 466 kts 234°
2026-05-07 22:58 24.22542 -156.03823 40141 ft 466 kts 235°
2026-05-07 22:58 24.18814 -156.09602 40144 ft 466 kts 235°
2026-05-07 22:59 24.15693 -156.14435 40142 ft 466 kts 235°
2026-05-07 22:59 24.11953 -156.20221 40142 ft 466 kts 235°
2026-05-07 23:00 24.08210 -156.26005 40147 ft 466 kts 235°
2026-05-07 23:00 24.03905 -156.31257 40150 ft 466 kts 217°
2026-05-07 23:00 24.01116 -156.33013 40144 ft 467 kts 204°
2026-05-07 23:01 23.98026 -156.34235 40144 ft 469 kts 199°
2026-05-07 23:01 23.91799 -156.36387 40142 ft 471 kts 199°
2026-05-07 23:02 23.85542 -156.38557 40144 ft 472 kts 199°
2026-05-07 23:02 23.79289 -156.40739 40138 ft 472 kts 199°
2026-05-07 23:03 23.73033 -156.42925 40132 ft 472 kts 200°
2026-05-07 23:03 23.66810 -156.45099 40134 ft 472 kts 200°
2026-05-07 23:04 23.60548 -156.47284 40139 ft 472 kts 200°
2026-05-07 23:04 23.54278 -156.49471 40144 ft 473 kts 200°
2026-05-07 23:05 23.48006 -156.51656 40134 ft 473 kts 200°
2026-05-07 23:05 23.41768 -156.53826 40146 ft 473 kts 200°
2026-05-07 23:06 23.35484 -156.56011 40144 ft 473 kts 200°
2026-05-07 23:06 23.29235 -156.58182 40142 ft 472 kts 200°
2026-05-07 23:07 23.22963 -156.60358 40140 ft 472 kts 200°
2026-05-07 23:07 23.16705 -156.62527 40134 ft 473 kts 200°
2026-05-07 23:08 23.10440 -156.64697 40143 ft 473 kts 200°
2026-05-07 23:08 23.04163 -156.66869 40143 ft 473 kts 200°
2026-05-07 23:09 22.97895 -156.69035 40138 ft 473 kts 200°
2026-05-07 23:09 22.91606 -156.71207 40140 ft 473 kts 200°
2026-05-07 23:10 22.85356 -156.73362 40133 ft 474 kts 200°
2026-05-07 23:10 22.78933 -156.75059 40134 ft 478 kts 191°
2026-05-07 23:11 22.72341 -156.76008 40142 ft 478 kts 190°
2026-05-07 23:11 22.65757 -156.76939 40135 ft 479 kts 190°
2026-05-07 23:12 22.59133 -156.77882 40132 ft 479 kts 191°
2026-05-07 23:12 22.52554 -156.78822 40129 ft 480 kts 191°
2026-05-07 23:13 22.45930 -156.79768 40135 ft 480 kts 191°
2026-05-07 23:13 22.39304 -156.80714 40134 ft 480 kts 191°
2026-05-07 23:14 22.32690 -156.81657 40121 ft 480 kts 191°
2026-05-07 23:14 22.26060 -156.82636 40122 ft 479 kts 194°
2026-05-07 23:14 22.22934 -156.83681 40130 ft 471 kts 209°
2026-05-07 23:15 22.20143 -156.85505 40130 ft 465 kts 219°
2026-05-07 23:15 22.14929 -156.89644 40127 ft 466 kts 219°
2026-05-07 23:16 22.09716 -156.93779 40126 ft 466 kts 219°
2026-05-07 23:16 22.04482 -156.97895 40111 ft 466 kts 219°
2026-05-07 23:17 21.99238 -157.02005 40125 ft 466 kts 219°
2026-05-07 23:17 21.94001 -157.06104 40127 ft 466 kts 219°
2026-05-07 23:18 21.88752 -157.10207 40121 ft 466 kts 219°
2026-05-07 23:18 21.83508 -157.14303 40121 ft 466 kts 219°
2026-05-07 23:19 21.78278 -157.18383 40118 ft 466 kts 219°
2026-05-07 23:19 21.73039 -157.22468 40119 ft 465 kts 220°
2026-05-07 23:20 21.68039 -157.26882 40121 ft 462 kts 225°
2026-05-07 23:20 21.63208 -157.31369 40116 ft 462 kts 224°
2026-05-07 23:21 21.58302 -157.35862 40116 ft 462 kts 224°
2026-05-07 23:21 21.53395 -157.40330 40116 ft 462 kts 224°
2026-05-07 23:22 21.48513 -157.44763 40108 ft 462 kts 225°
2026-05-07 23:22 21.43614 -157.49205 40112 ft 460 kts 224°
2026-05-07 23:22 21.41395 -157.51602 40124 ft 453 kts 237°
2026-05-07 23:23 21.39872 -157.54533 40128 ft 444 kts 251°
2026-05-07 23:23 21.37755 -157.60715 40128 ft 444 kts 252°
2026-05-07 23:24 21.35529 -157.66896 40132 ft 445 kts 251°
2026-05-07 23:24 21.33222 -157.73044 40134 ft 445 kts 251°
2026-05-07 23:25 21.30878 -157.79204 40124 ft 445 kts 250°
2026-05-07 23:25 21.28524 -157.85313 40119 ft 446 kts 248°
2026-05-07 23:25 21.26771 -157.88104 40133 ft 451 kts 232°
2026-05-07 23:26 21.24597 -157.90520 40123 ft 452 kts 230°
2026-05-07 23:26 21.20363 -157.95503 40128 ft 450 kts 237°
2026-05-07 23:27 21.14673 -158.03485 40132 ft 449 kts 237°
2026-05-07 23:27 21.11192 -158.08937 40139 ft 441 kts 252°
2026-05-07 23:28 21.10485 -158.12104 40123 ft 433 kts 268°
2026-05-07 23:28 21.10684 -158.15262 40122 ft 430 kts 283°
2026-05-07 23:28 21.11763 -158.18251 40126 ft 433 kts 298°
2026-05-07 23:28 21.13648 -158.20800 40130 ft 439 kts 314°
2026-05-07 23:29 21.16165 -158.22657 40133 ft 448 kts 329°
2026-05-07 23:29 21.19154 -158.23695 40133 ft 460 kts 345°
2026-05-07 23:29 21.22415 -158.23800 40134 ft 475 kts
2026-05-07 23:29 21.25644 -158.22944 40137 ft 490 kts 15°
2026-05-07 23:30 21.28658 -158.21154 40137 ft 505 kts 31°
2026-05-07 23:30 21.31249 -158.18497 40149 ft 518 kts 47°
2026-05-07 23:30 21.33145 -158.15224 40137 ft 526 kts 63°
2026-05-07 23:30 21.34253 -158.11498 40142 ft 531 kts 78°
2026-05-07 23:31 21.34488 -158.07525 40139 ft 533 kts 94°
2026-05-07 23:31 21.34088 -158.03563 40142 ft 534 kts 97°
2026-05-07 23:31 21.33703 -157.95654 40131 ft 533 kts 79°
2026-05-07 23:32 21.34601 -157.91794 40134 ft 528 kts 68°
2026-05-07 23:32 21.35360 -157.87954 40138 ft 533 kts 84°
2026-05-07 23:32 21.35225 -157.84009 40130 ft 535 kts 100°
2026-05-07 23:32 21.34185 -157.80157 40115 ft 533 kts 115°
2026-05-07 23:33 21.32343 -157.76768 40113 ft 528 kts 131°
2026-05-07 23:33 21.29816 -157.73993 40120 ft 521 kts 146°
2026-05-07 23:33 21.26775 -157.71998 40116 ft 511 kts 161°
2026-05-07 23:33 21.23395 -157.70898 40100 ft 498 kts 177°
2026-05-07 23:34 21.19994 -157.70778 40116 ft 485 kts 193°
2026-05-07 23:34 21.16794 -157.71590 40115 ft 472 kts 208°
2026-05-07 23:34 21.13956 -157.73282 40115 ft 458 kts 224°
2026-05-07 23:34 21.11771 -157.75651 40115 ft 446 kts 239°
2026-05-07 23:35 21.07979 -157.80889 40113 ft 453 kts 230°
2026-05-07 23:35 21.03538 -157.85672 40099 ft 454 kts 230°
2026-05-07 23:36 20.98841 -157.90241 40103 ft 463 kts 218°
2026-05-07 23:36 20.95908 -157.91776 40104 ft 474 kts 205°
2026-05-07 23:36 20.92730 -157.92707 40060 ft 481 kts 198°
2026-05-07 23:37 20.89407 -157.93143 39640 ft 486 kts 189°
2026-05-07 23:37 20.85974 -157.93169 38906 ft 492 kts 186°
2026-05-07 23:37 20.82568 -157.93090 38076 ft 495 kts 185°
2026-05-07 23:37 20.79102 -157.93017 37313 ft 496 kts 185°
2026-05-07 23:38 20.75638 -157.92971 36584 ft 495 kts 185°
2026-05-07 23:38 20.72211 -157.92957 35872 ft 495 kts 185°
2026-05-07 23:38 20.68746 -157.92973 35162 ft 495 kts 185°
2026-05-07 23:38 20.65336 -157.93022 34468 ft 495 kts 185°
2026-05-07 23:39 20.61887 -157.93103 33710 ft 494 kts 185°
2026-05-07 23:39 20.58454 -157.93217 32851 ft 494 kts 186°
2026-05-07 23:39 20.55057 -157.93794 31933 ft 490 kts 200°
2026-05-07 23:39 20.51984 -157.95255 31021 ft 486 kts 214°
2026-05-07 23:40 20.49381 -157.97515 30065 ft 485 kts 228°
2026-05-07 23:40 20.47422 -158.00455 29036 ft 485 kts 243°
2026-05-07 23:40 20.46269 -158.03777 28225 ft 481 kts 256°
2026-05-07 23:40 20.45545 -158.07235 27217 ft 467 kts 258°
2026-05-07 23:41 20.45123 -158.10604 25764 ft 462 kts 268°
2026-05-07 23:41 20.45508 -158.14020 24367 ft 459 kts 284°
2026-05-07 23:41 20.46746 -158.17112 23011 ft 455 kts 300°
2026-05-07 23:41 20.48622 -158.19770 21587 ft 450 kts 313°
2026-05-07 23:42 20.51089 -158.21830 20247 ft 446 kts 329°
2026-05-07 23:42 20.53876 -158.23164 19020 ft 439 kts 338°
2026-05-07 23:42 20.56723 -158.24293 17714 ft 433 kts 339°
2026-05-07 23:42 20.59541 -158.25378 16385 ft 426 kts 340°
2026-05-07 23:43 20.62354 -158.26202 15113 ft 420 kts 348°
2026-05-07 23:43 20.65243 -158.26603 13905 ft 413 kts 353°
2026-05-07 23:43 20.68071 -158.26852 12546 ft 407 kts 354°
2026-05-07 23:43 20.70885 -158.27092 11358 ft 397 kts 354°
2026-05-07 23:44 20.73303 -158.27296 10306 ft 390 kts 354°
2026-05-07 23:44 20.74675 -158.27416 9706 ft 386 kts 354°
2026-05-07 23:44 20.77307 -158.27644 8908 ft 366 kts 354°
2026-05-07 23:44 20.79743 -158.27862 8447 ft 340 kts 354°
2026-05-07 23:45 20.82044 -158.28064 8042 ft 316 kts 354°
2026-05-07 23:45 20.84151 -158.28253 7665 ft 297 kts 354°
2026-05-07 23:45 20.86165 -158.28434 7243 ft 290 kts 354°
2026-05-07 23:45 20.88163 -158.28619 6938 ft 284 kts 354°
2026-05-07 23:46 20.90128 -158.28802 6581 ft 280 kts 354°
2026-05-07 23:46 20.92045 -158.28929 6201 ft 277 kts 358°
2026-05-07 23:46 20.93968 -158.28961 5815 ft 275 kts 359°
2026-05-07 23:46 20.95863 -158.28989 5432 ft 272 kts 359°
2026-05-07 23:47 20.97740 -158.29029 5064 ft 269 kts 359°
2026-05-07 23:47 20.99607 -158.29079 4657 ft 267 kts 359°
2026-05-07 23:47 21.01505 -158.29138 4204 ft 285 kts 359°
2026-05-07 23:47 21.03630 -158.29193 3957 ft 328 kts 359°
2026-05-07 23:48 21.05975 -158.29251 3811 ft 344 kts 359°
2026-05-07 23:48 21.08401 -158.29311 3649 ft 350 kts 359°
2026-05-07 23:48 21.10845 -158.29377 3479 ft 349 kts 359°
2026-05-07 23:48 21.13277 -158.29439 3275 ft 350 kts 359°
2026-05-07 23:49 21.15705 -158.29504 3077 ft 348 kts 359°
2026-05-07 23:49 21.18110 -158.29567 3034 ft 349 kts 359°
2026-05-07 23:49 21.20548 -158.29636 3035 ft 349 kts 359°
2026-05-07 23:49 21.22961 -158.29701 3037 ft 349 kts 359°
2026-05-07 23:50 21.25403 -158.29766 3034 ft 349 kts 359°
2026-05-07 23:50 21.27813 -158.29832 3045 ft 348 kts 359°
2026-05-07 23:50 21.30160 -158.29785 3036 ft 326 kts
2026-05-07 23:50 21.32204 -158.29006 2996 ft 301 kts 32°
2026-05-07 23:51 21.33636 -158.27511 2997 ft 277 kts 58°
2026-05-07 23:51 21.34250 -158.25665 2988 ft 259 kts 83°
2026-05-07 23:51 21.34162 -158.23763 3002 ft 258 kts 97°
2026-05-07 23:51 21.33861 -158.21864 2999 ft 258 kts 99°
2026-05-07 23:52 21.33400 -158.19988 2925 ft 257 kts 107°
2026-05-07 23:52 21.33159 -158.18172 2716 ft 242 kts 79°
2026-05-07 23:52 21.33654 -158.16498 2553 ft 229 kts 69°
2026-05-07 23:52 21.33815 -158.14853 2498 ft 217 kts 95°
2026-05-07 23:53 21.33507 -158.13331 2495 ft 203 kts 98°
2026-05-07 23:53 21.33165 -158.11912 2502 ft 187 kts 99°
2026-05-07 23:53 21.32866 -158.10633 2506 ft 168 kts 97°
2026-05-07 23:53 21.32564 -158.09426 2507 ft 175 kts 100°
2026-05-07 23:54 21.32263 -158.08133 2511 ft 179 kts 99°
2026-05-07 23:54 21.32062 -158.07265 2510 ft 181 kts 98°
2026-05-07 23:54 21.31747 -158.05971 2502 ft 179 kts 100°
2026-05-07 23:54 21.31611 -158.04702 2484 ft 163 kts 83°
2026-05-07 23:55 21.31859 -158.03580 2338 ft 152 kts 65°
2026-05-07 23:55 21.32319 -158.02544 1915 ft 156 kts 62°
2026-05-07 23:55 21.32597 -158.01407 1419 ft 160 kts 86°
2026-05-07 23:55 21.32485 -158.00248 1150 ft 149 kts 91°
2026-05-07 23:56 21.32453 -157.99183 950 ft 139 kts 85°
2026-05-07 23:56 21.32487 -157.98176 754 ft 131 kts 85°
2026-05-07 23:56 21.32514 -157.97207 543 ft 130 kts 88°
2026-05-07 23:56 21.32533 -157.96227 395 ft 134 kts 88°
2026-05-07 23:57 21.32526 -157.95226 258 ft 141 kts 89°
2026-05-07 23:57 21.32517 -157.94157 60 ft 140 kts 86°
2026-05-07 23:57 21.32522 -157.93189 41 ft 123 kts 85°
2026-05-07 23:57 21.32525 -157.92344 31 ft 96 kts 90°
2026-05-07 23:58 21.32526 -157.91919 30 ft 29 kts 90°
2026-05-07 23:58 21.32575 -157.91829 30 ft 13 kts 13°
2026-05-07 23:58 21.32656 -157.91862 30 ft 13 kts 326°
2026-05-07 23:58 21.32738 -157.91921 29 ft 15 kts 327°
2026-05-07 23:59 21.32774 -157.92018 30 ft 15 kts 272°
2026-05-07 23:59 21.32775 -157.92138 30 ft 17 kts 270°
2026-05-07 23:59 21.32800 -157.92244 30 ft 11 kts 322°
2026-05-07 23:59 21.32866 -157.92304 30 ft 14 kts 319°
2026-05-08 00:00 21.32887 -157.92323 30 ft 1 kts 319°
2026-05-08 00:00 21.32888 -157.92324 30 ft 0 kts 319°